Observation data for Aiken on 12/08/2018      Previous  Date       Current Mesonet Observations  Soil Data  Daily Summary Page  Observations in Plain Language
KAI1 080600Z 03010KT M01/M02 A303 RMK A01 T10121015  RH  098%=      5-min Rain = 0
KAI1 080601Z 03010KT M01/M02 A303 RMK A01 T10121015  RH  098%=      5-min Rain = 0
KAI1 080602Z 03010KT M01/M02 A303 RMK A01 T10111015  RH  098%=      5-min Rain = 0
KAI1 080603Z 04010KT M01/M02 A303 RMK A01 T10121015  RH  098%=      5-min Rain = 0
KAI1 080604Z 03009KT M01/M02 A303 RMK A01 T10111015  RH  098%=      5-min Rain = 0
KAI1 080605Z 03008KT M01/M02 A303 RMK A01 T10121015  RH  098%=      5-min Rain = 0
KAI1 080606Z 03009KT M01/M02 A3029 RMK A01 T10111015  RH  098%=      5-min Rain = 0
KAI1 080607Z 03009KT M01/M02 A3029 RMK A01 T10121015  RH  098%=      5-min Rain = 0
KAI1 080608Z 03008KT M01/M01 A3029 RMK A01 T10111014  RH  098%=      5-min Rain = 0
KAI1 080609Z 03010KT M01/M01 A3029 RMK A01 T10111014  RH  098%=      5-min Rain = 0
KAI1 080610Z 03009KT M01/M02 A3029 RMK A01 T10111015  RH  098%=      5-min Rain = 0
KAI1 080611Z 03009KT M01/M01 A3029 RMK A01 T10111014  RH  098%=      5-min Rain = 0
KAI1 080612Z 03009KT M01/M01 A3029 RMK A01 T10111014  RH  098%=      5-min Rain = 0
KAI1 080613Z 03009KT M01/M02 A3029 RMK A01 T10121015  RH  098%=      5-min Rain = 0
KAI1 080614Z 03008KT M01/M02 A3029 RMK A01 T10121015  RH  098%=      5-min Rain = 0
KAI1 080615Z 03009KT M01/M02 A3029 RMK A01 T10111015  RH  098%=      5-min Rain = 0
KAI1 080616Z 03008KT M01/M02 A3029 RMK A01 T10121015  RH  098%=      5-min Rain = 0
KAI1 080617Z 03009KT M01/M02 A3029 RMK A01 T10111015  RH  098%=      5-min Rain = 0
KAI1 080618Z 03010KT M01/M02 A3029 RMK A01 T10121015  RH  098%=      5-min Rain = 0
KAI1 080619Z 03008KT M01/M02 A3029 RMK A01 T10111015  RH  098%=      5-min Rain = 0
KAI1 080620Z 03010KT M01/M02 A3029 RMK A01 T10121015  RH  098%=      5-min Rain = 0
KAI1 080621Z 03010KT M01/M02 A3029 RMK A01 T10121015  RH  098%=      5-min Rain = 0
KAI1 080622Z 03010KT M01/M02 A3029 RMK A01 T10121015  RH  098%=      5-min Rain = 0
KAI1 080623Z 03010KT M01/M02 A3029 RMK A01 T10121015  RH  098%=      5-min Rain = 0
KAI1 080624Z 02010KT M01/M02 A3029 RMK A01 T10121015  RH  098%=      5-min Rain = 0
KAI1 080625Z 03010KT M01/M02 A3029 RMK A01 T10121015  RH  098%=      5-min Rain = 0
KAI1 080626Z 03010KT M01/M02 A3029 RMK A01 T10121015  RH  098%=      5-min Rain = 0
KAI1 080627Z 03009KT M01/M02 A3029 RMK A01 T10121015  RH  098%=      5-min Rain = 0
KAI1 080628Z 03008KT M01/M02 A3029 RMK A01 T10121015  RH  098%=      5-min Rain = 0
KAI1 080629Z 04010KT M01/M02 A3029 RMK A01 T10121015  RH  098%=      5-min Rain = 0
KAI1 080630Z 03010KT M01/M02 A3029 RMK A01 T10121015  RH  097%=      5-min Rain = 0
KAI1 080631Z 03009KT M01/M02 A3028 RMK A01 T10121016  RH  097%=      5-min Rain = 0
KAI1 080632Z 03009KT M01/M02 A3028 RMK A01 T10121015  RH  097%=      5-min Rain = 0
KAI1 080633Z 03009KT M01/M02 A3028 RMK A01 T10121016  RH  097%=      5-min Rain = 0
KAI1 080634Z 03009KT M01/M02 A3028 RMK A01 T10121016  RH  097%=      5-min Rain = 0
KAI1 080635Z 03010KT M01/M02 A3028 RMK A01 T10121016  RH  097%=      5-min Rain = 0
KAI1 080636Z 03010KT M01/M02 A3028 RMK A01 T10121016  RH  097%=      5-min Rain = 0
KAI1 080637Z 03009KT M01/M02 A3028 RMK A01 T10121016  RH  097%=      5-min Rain = 0
KAI1 080638Z 03010KT M01/M02 A3028 RMK A01 T10121016  RH  097%=      5-min Rain = 0
KAI1 080639Z 03010KT M01/M02 A3028 RMK A01 T10121015  RH  097%=      5-min Rain = 0
KAI1 080640Z 03009KT M01/M02 A3028 RMK A01 T10121016  RH  097%=      5-min Rain = 0
KAI1 080641Z 03008KT M01/M02 A3028 RMK A01 T10121015  RH  097%=      5-min Rain = 0
KAI1 080642Z 03010KT M01/M02 A3028 RMK A01 T10121015  RH  097%=      5-min Rain = 0
KAI1 080643Z 03009KT M01/M02 A3028 RMK A01 T10121015  RH  097%=      5-min Rain = 0
KAI1 080644Z 02008KT M01/M02 A3028 RMK A01 T10121015  RH  097%=      5-min Rain = 0
KAI1 080645Z 03008KT M01/M02 A3028 RMK A01 T10121016  RH  097%=      5-min Rain = 0
KAI1 080646Z 03009KT M01/M02 A3028 RMK A01 T10121016  RH  097%=      5-min Rain = 0
KAI1 080647Z 02009KT M01/M02 A3028 RMK A01 T10121015  RH  097%=      5-min Rain = 0
KAI1 080648Z 03010KT M01/M02 A3028 RMK A01 T10121016  RH  097%=      5-min Rain = 0
KAI1 080649Z 02010KT M01/M02 A3028 RMK A01 T10121016  RH  097%=      5-min Rain = 0
KAI1 080650Z 02009KT M01/M02 A3028 RMK A01 T10121016  RH  097%=      5-min Rain = 0
KAI1 080651Z 03010KT M01/M02 A3028 RMK A01 T10121016  RH  098%=      5-min Rain = 0
KAI1 080652Z 03011KT M01/M02 A3028 RMK A01 T10121016  RH  098%=      5-min Rain = 0
KAI1 080653Z 03010KT M01/M02 A3028 RMK A01 T10131016  RH  097%=      5-min Rain = 0
KAI1 080654Z 03009KT M01/M02 A3027 RMK A01 T10131016  RH  097%=      5-min Rain = 0
KAI1 080655Z 03009KT M01/M02 A3027 RMK A01 T10131016  RH  097%=      5-min Rain = 0
KAI1 080656Z 03011KT M01/M02 A3027 RMK A01 T10121016  RH  098%=      5-min Rain = 0
KAI1 080657Z 03010KT M01/M02 A3027 RMK A01 T10131016  RH  098%=      5-min Rain = 0
KAI1 080658Z 03010KT M01/M02 A3027 RMK A01 T10121016  RH  098%=      5-min Rain = 0
KAI1 080659Z 03010KT M01/M02 A3027 RMK A01 T10121016  RH  097%=      5-min Rain = 0
KAI1 080700Z 03009KT M01/M02 A3027 RMK A01 T10131016  RH  097%=      5-min Rain = 0
KAI1 080701Z 03010KT M01/M02 A3027 RMK A01 T10121016  RH  097%=      5-min Rain = 0
KAI1 080702Z 03008KT M01/M02 A3028 RMK A01 T10121016  RH  097%=      5-min Rain = 0
KAI1 080703Z 03008KT M01/M02 A3028 RMK A01 T10121016  RH  097%=      5-min Rain = 0
KAI1 080704Z 03008KT M01/M02 A3028 RMK A01 T10121016  RH  097%=      5-min Rain = 0
KAI1 080705Z 03010KT M01/M02 A3028 RMK A01 T10121016  RH  097%=      5-min Rain = 0
KAI1 080706Z 03009KT M01/M02 A3028 RMK A01 T10121015  RH  097%=      5-min Rain = 0
KAI1 080707Z 03009KT M01/M02 A3028 RMK A01 T10121016  RH  097%=      5-min Rain = 0
KAI1 080708Z 03009KT M01/M02 A3028 RMK A01 T10121016  RH  097%=      5-min Rain = 0
KAI1 080709Z 03009KT M01/M02 A3028 RMK A01 T10121016  RH  097%=      5-min Rain = 0
KAI1 080710Z 03008KT M01/M02 A3028 RMK A01 T10121016  RH  097%=      5-min Rain = 0
KAI1 080711Z 03009KT M01/M02 A3027 RMK A01 T10121016  RH  097%=      5-min Rain = 0
KAI1 080712Z 03009KT M01/M02 A3027 RMK A01 T10121016  RH  097%=      5-min Rain = 0
KAI1 080713Z 03008KT M01/M02 A3027 RMK A01 T10121016  RH  097%=      5-min Rain = 0
KAI1 080714Z 03008KT M01/M02 A3027 RMK A01 T10121016  RH  097%=      5-min Rain = 0
KAI1 080715Z 03009KT M01/M02 A3027 RMK A01 T10121016  RH  097%=      5-min Rain = 0
KAI1 080716Z 03008KT M01/M02 A3027 RMK A01 T10121016  RH  097%=      5-min Rain = 0
KAI1 080717Z 03008KT M01/M02 A3027 RMK A01 T10121015  RH  097%=      5-min Rain = 0
KAI1 080718Z 02008KT M01/M02 A3027 RMK A01 T10121015  RH  097%=      5-min Rain = 0
KAI1 080719Z 02009KT M01/M02 A3028 RMK A01 T10111015  RH  098%=      5-min Rain = 0
KAI1 080720Z 02009KT M01/M02 A3028 RMK A01 T10111015  RH  098%=      5-min Rain = 0
KAI1 080721Z 02008KT M01/M02 A3028 RMK A01 T10111015  RH  097%=      5-min Rain = 0
KAI1 080722Z 02008KT M01/M02 A3028 RMK A01 T10121015  RH  098%=      5-min Rain = 0
KAI1 080723Z 02010KT M01/M02 A3028 RMK A01 T10121015  RH  098%=      5-min Rain = 0
KAI1 080724Z 03010KT M01/M02 A3028 RMK A01 T10111015  RH  098%=      5-min Rain = 0
KAI1 080725Z 02008KT M01/M02 A3028 RMK A01 T10111015  RH  098%=      5-min Rain = 0
KAI1 080726Z 02007KT M01/M02 A3028 RMK A01 T10111015  RH  098%=      5-min Rain = 0
KAI1 080727Z 02009KT M01/M02 A3028 RMK A01 T10111015  RH  098%=      5-min Rain = 0
KAI1 080728Z 02007KT M01/M02 A3028 RMK A01 T10111015  RH  098%=      5-min Rain = 0
KAI1 080729Z 02009KT M01/M02 A3028 RMK A01 T10121015  RH  098%=      5-min Rain = 0
KAI1 080730Z 02010KT M01/M02 A3028 RMK A01 T10121015  RH  097%=      5-min Rain = 0
KAI1 080731Z 02010KT M01/M02 A3028 RMK A01 T10121016  RH  097%=      5-min Rain = 0
KAI1 080732Z 02009KT M01/M02 A3028 RMK A01 T10121016  RH  097%=      5-min Rain = 0
KAI1 080733Z 02008KT M01/M02 A3028 RMK A01 T10121016  RH  097%=      5-min Rain = 0
KAI1 080734Z 02010KT M01/M02 A3028 RMK A01 T10121016  RH  097%=      5-min Rain = 0
KAI1 080735Z 02009KT M01/M02 A3028 RMK A01 T10121016  RH  097%=      5-min Rain = 0
KAI1 080736Z 02010KT M01/M02 A3028 RMK A01 T10121016  RH  097%=      5-min Rain = 0
KAI1 080737Z 02009KT M01/M02 A3028 RMK A01 T10121016  RH  097%=      5-min Rain = 0
KAI1 080738Z 02008KT M01/M02 A3028 RMK A01 T10121016  RH  097%=      5-min Rain = 0
KAI1 080739Z 02007KT M01/M02 A3028 RMK A01 T10121016  RH  097%=      5-min Rain = 0
KAI1 080740Z 02007KT M01/M02 A3028 RMK A01 T10111015  RH  097%=      5-min Rain = 0
KAI1 080741Z 02008KT M01/M02 A3028 RMK A01 T10111015  RH  097%=      5-min Rain = 0
KAI1 080742Z 02009KT M01/M02 A3028 RMK A01 T10111015  RH  097%=      5-min Rain = 0
KAI1 080743Z 02007KT M01/M02 A3027 RMK A01 T10111015  RH  097%=      5-min Rain = 0
KAI1 080744Z 01007KT M01/M02 A3027 RMK A01 T10111015  RH  097%=      5-min Rain = 0
KAI1 080745Z 02006KT M01/M02 A3027 RMK A01 T10111015  RH  097%=      5-min Rain = 0
KAI1 080746Z 01007KT M01/M02 A3027 RMK A01 T10111015  RH  097%=      5-min Rain = 0
KAI1 080747Z 01009KT M01/M02 A3027 RMK A01 T10111015  RH  097%=      5-min Rain = 0
KAI1 080748Z 01010KT M01/M02 A3027 RMK A01 T10111015  RH  097%=      5-min Rain = 0
KAI1 080749Z 02009KT M01/M02 A3027 RMK A01 T10111015  RH  097%=      5-min Rain = 0
KAI1 080750Z 02008KT M01/M02 A3027 RMK A01 T10111015  RH  097%=      5-min Rain = 0
KAI1 080751Z 02009KT M01/M02 A3027 RMK A01 T10111015  RH  097%=      5-min Rain = 0
KAI1 080752Z 01008KT M01/M02 A3027 RMK A01 T10111015  RH  097%=      5-min Rain = 0
KAI1 080753Z 01008KT M01/M02 A3027 RMK A01 T10121015  RH  097%=      5-min Rain = 0
KAI1 080754Z 02009KT M01/M02 A3027 RMK A01 T10121015  RH  097%=      5-min Rain = 0
KAI1 080755Z 02009KT M01/M02 A3027 RMK A01 T10121015  RH  097%=      5-min Rain = 0
KAI1 080756Z 02008KT M01/M02 A3027 RMK A01 T10121015  RH  097%=      5-min Rain = 0
KAI1 080757Z 02009KT M01/M02 A3027 RMK A01 T10121015  RH  097%=      5-min Rain = 0
KAI1 080758Z 02009KT M01/M02 A3027 RMK A01 T10121015  RH  097%=      5-min Rain = 0
KAI1 080759Z 02008KT M01/M02 A3027 RMK A01 T10121015  RH  097%=      5-min Rain = 0
KAI1 080800Z 02010KT M01/M02 A3027 RMK A01 T10121016  RH  097%=      5-min Rain = 0
KAI1 080801Z 02009KT M01/M02 A3027 RMK A01 T10121016  RH  097%=      5-min Rain = 0
KAI1 080802Z 02009KT M01/M02 A3027 RMK A01 T10121016  RH  097%=      5-min Rain = 0
KAI1 080803Z 02009KT M01/M02 A3027 RMK A01 T10121016  RH  097%=      5-min Rain = 0
KAI1 080804Z 03009KT M01/M02 A3027 RMK A01 T10121016  RH  097%=      5-min Rain = 0
KAI1 080805Z 02007KT M01/M02 A3027 RMK A01 T10121016  RH  097%=      5-min Rain = 0
KAI1 080806Z 03008KT M01/M02 A3027 RMK A01 T10121016  RH  097%=      5-min Rain = 0
KAI1 080807Z 02007KT M01/M02 A3027 RMK A01 T10121016  RH  097%=      5-min Rain = 0
KAI1 080808Z 02006KT M01/M02 A3027 RMK A01 T10121015  RH  097%=      5-min Rain = 0
KAI1 080809Z 02006KT M01/M02 A3027 RMK A01 T10121015  RH  097%=      5-min Rain = 0
KAI1 080810Z 02006KT M01/M02 A3027 RMK A01 T10111015  RH  097%=      5-min Rain = 0
KAI1 080811Z 02007KT M01/M02 A3028 RMK A01 T10121015  RH  098%=      5-min Rain = 0
KAI1 080812Z 02008KT M01/M02 A3028 RMK A01 T10121015  RH  098%=      5-min Rain = 0
KAI1 080813Z 02008KT M01/M02 A3028 RMK A01 T10121015  RH  098%=      5-min Rain = 0
KAI1 080814Z 02007KT M01/M02 A3028 RMK A01 T10111015  RH  098%=      5-min Rain = 0
KAI1 080815Z 02007KT M01/M02 A3028 RMK A01 T10121015  RH  098%=      5-min Rain = 0
KAI1 080816Z 02008KT M01/M02 A3028 RMK A01 T10111015  RH  098%=      5-min Rain = 0
KAI1 080817Z 02007KT M01/M02 A3028 RMK A01 T10121015  RH  098%=      5-min Rain = 0
KAI1 080818Z 02007KT M01/M02 A3028 RMK A01 T10111015  RH  098%=      5-min Rain = 0
KAI1 080819Z 02007KT M01/M02 A3028 RMK A01 T10121015  RH  098%=      5-min Rain = 0
KAI1 080820Z 02007KT M01/M02 A3028 RMK A01 T10111015  RH  098%=      5-min Rain = 0
KAI1 080821Z 02007KT M01/M02 A3028 RMK A01 T10111015  RH  098%=      5-min Rain = 0
KAI1 080822Z 02007KT M01/M02 A3028 RMK A01 T10121015  RH  098%=      5-min Rain = 0
KAI1 080823Z 02007KT M01/M02 A3028 RMK A01 T10121015  RH  098%=      5-min Rain = 0
KAI1 080824Z 03007KT M01/M02 A3028 RMK A01 T10121015  RH  098%=      5-min Rain = 0
KAI1 080825Z 03006KT M01/M02 A3028 RMK A01 T10111015  RH  098%=      5-min Rain = 0
KAI1 080826Z 03008KT M01/M02 A3028 RMK A01 T10121015  RH  098%=      5-min Rain = 0
KAI1 080827Z 02007KT M01/M01 A3028 RMK A01 T10111014  RH  098%=      5-min Rain = 0
KAI1 080828Z 03005KT M01/M02 A3028 RMK A01 T10121015  RH  098%=      5-min Rain = 0
KAI1 080829Z 03006KT M01/M01 A3028 RMK A01 T10121014  RH  098%=      5-min Rain = 0
KAI1 080830Z 03006KT M01/M01 A3027 RMK A01 T10111014  RH  098%=      5-min Rain = 0
KAI1 080831Z 03007KT M01/M02 A3027 RMK A01 T10121015  RH  098%=      5-min Rain = 0
KAI1 080832Z 03006KT M01/M01 A3027 RMK A01 T10111014  RH  098%=      5-min Rain = 0
KAI1 080833Z 03007KT M01/M01 A3027 RMK A01 T10121014  RH  098%=      5-min Rain = 0
KAI1 080834Z 03005KT M01/M01 A3027 RMK A01 T10111014  RH  098%=      5-min Rain = 0
KAI1 080835Z 03005KT M01/M01 A3027 RMK A01 T10121014  RH  098%=      5-min Rain = 0
KAI1 080836Z 02007KT M01/M01 A3027 RMK A01 T10121014  RH  098%=      5-min Rain = 0
KAI1 080837Z 02007KT M01/M01 A3027 RMK A01 T10111014  RH  098%=      5-min Rain = 0
KAI1 080838Z 02008KT M01/M01 A3027 RMK A01 T10121014  RH  098%=      5-min Rain = 0
KAI1 080839Z 03008KT M01/M01 A3027 RMK A01 T10121014  RH  098%=      5-min Rain = 0
KAI1 080840Z 03007KT M01/M02 A3027 RMK A01 T10121015  RH  098%=      5-min Rain = 0
KAI1 080841Z 02006KT M01/M02 A3027 RMK A01 T10121015  RH  098%=      5-min Rain = 0
KAI1 080842Z 03008KT M01/M02 A3027 RMK A01 T10121015  RH  098%=      5-min Rain = 0
KAI1 080843Z 02008KT M01/M02 A3027 RMK A01 T10121015  RH  098%=      5-min Rain = 0
KAI1 080844Z 03008KT M01/M02 A3027 RMK A01 T10121015  RH  098%=      5-min Rain = 0
KAI1 080845Z 02007KT M01/M01 A3027 RMK A01 T10121014  RH  098%=      5-min Rain = 0
KAI1 080846Z 03008KT M01/M02 A3027 RMK A01 T10121015  RH  098%=      5-min Rain = 0
KAI1 080847Z 03008KT M01/M02 A3027 RMK A01 T10121015  RH  098%=      5-min Rain = 0
KAI1 080848Z 03007KT M01/M02 A3027 RMK A01 T10121015  RH  098%=      5-min Rain = 0
KAI1 080849Z 03006KT M01/M02 A3027 RMK A01 T10131015  RH  098%=      5-min Rain = 0
KAI1 080850Z 03007KT M01/M02 A3027 RMK A01 T10121015  RH  098%=      5-min Rain = 0
KAI1 080851Z 02007KT M01/M02 A3027 RMK A01 T10121015  RH  098%=      5-min Rain = 0
KAI1 080852Z 02007KT M01/M02 A3027 RMK A01 T10131015  RH  098%=      5-min Rain = 0
KAI1 080853Z 03007KT M01/M02 A3027 RMK A01 T10121015  RH  098%=      5-min Rain = 0
KAI1 080854Z 03007KT M01/M02 A3027 RMK A01 T10121015  RH  098%=      5-min Rain = 0
KAI1 080855Z 03007KT M01/M02 A3027 RMK A01 T10131015  RH  098%=      5-min Rain = 0
KAI1 080856Z 02005KT M01/M02 A3027 RMK A01 T10131015  RH  098%=      5-min Rain = 0
KAI1 080857Z 03006KT M01/M02 A3027 RMK A01 T10131015  RH  098%=      5-min Rain = 0
KAI1 080858Z 02007KT M01/M02 A3027 RMK A01 T10121015  RH  098%=      5-min Rain = 0
KAI1 080859Z 03006KT M01/M02 A3027 RMK A01 T10121015  RH  098%=      5-min Rain = 0
KAI1 080900Z 02006KT M01/M02 A3027 RMK A01 T10121015  RH  098%=      5-min Rain = 0
KAI1 080901Z 02006KT M01/M02 A3027 RMK A01 T10121015  RH  098%=      5-min Rain = 0
KAI1 080902Z 02006KT M01/M02 A3027 RMK A01 T10121015  RH  098%=      5-min Rain = 0
KAI1 080903Z 02005KT M01/M02 A3027 RMK A01 T10121015  RH  098%=      5-min Rain = 0
KAI1 080904Z 02005KT M01/M01 A3027 RMK A01 T10121014  RH  098%=      5-min Rain = 0
KAI1 080905Z 02006KT M01/M01 A3027 RMK A01 T10121014  RH  099%=      5-min Rain = 0
KAI1 080906Z 02006KT M01/M01 A3027 RMK A01 T10121014  RH  099%=      5-min Rain = 0
KAI1 080907Z 03005KT M01/M02 A3027 RMK A01 T10131015  RH  099%=      5-min Rain = 0
KAI1 080908Z 03007KT M01/M01 A3027 RMK A01 T10121014  RH  099%=      5-min Rain = 0
KAI1 080909Z 02006KT M01/M02 A3027 RMK A01 T10131015  RH  099%=      5-min Rain = 0
KAI1 080910Z 02006KT M01/M01 A3027 RMK A01 T10121014  RH  099%=      5-min Rain = 0
KAI1 080911Z 02006KT M01/M01 A3027 RMK A01 T10121014  RH  099%=      5-min Rain = 0
KAI1 080912Z 02006KT M01/M01 A3027 RMK A01 T10121014  RH  099%=      5-min Rain = 0
KAI1 080913Z 02007KT M01/M01 A3027 RMK A01 T10121014  RH  099%=      5-min Rain = 0
KAI1 080914Z 02006KT M01/M01 A3027 RMK A01 T10121014  RH  099%=      5-min Rain = 0
KAI1 080915Z 02005KT M01/M02 A3027 RMK A01 T10131015  RH  099%=      5-min Rain = 0
KAI1 080916Z 02006KT M01/M01 A3027 RMK A01 T10131014  RH  099%=      5-min Rain = 0
KAI1 080917Z 02006KT M01/M01 A3027 RMK A01 T10121014  RH  099%=      5-min Rain = 0
KAI1 080918Z 02006KT M01/M01 A3027 RMK A01 T10121014  RH  099%=      5-min Rain = 0
KAI1 080919Z 02005KT M01/M01 A3027 RMK A01 T10121014  RH  099%=      5-min Rain = 0
KAI1 080920Z 02006KT M01/M01 A3027 RMK A01 T10121014  RH  099%=      5-min Rain = 0
KAI1 080921Z 02006KT M01/M01 A3027 RMK A01 T10121014  RH  099%=      5-min Rain = 0
KAI1 080922Z 02007KT M01/M01 A3027 RMK A01 T10131014  RH  099%=      5-min Rain = 0
KAI1 080923Z 02007KT M01/M02 A3026 RMK A01 T10131015  RH  099%=      5-min Rain = 0
KAI1 080924Z 02006KT M01/M01 A3026 RMK A01 T10121014  RH  099%=      5-min Rain = 0
KAI1 080925Z 02006KT M01/M02 A3026 RMK A01 T10131015  RH  099%=      5-min Rain = 0
KAI1 080926Z 02006KT M01/M01 A3026 RMK A01 T10121014  RH  099%=      5-min Rain = 0
KAI1 080927Z 02006KT M01/M01 A3026 RMK A01 T10131014  RH  099%=      5-min Rain = 0
KAI1 080928Z 02006KT M01/M01 A3026 RMK A01 T10121014  RH  099%=      5-min Rain = 0
KAI1 080929Z 02006KT M01/M01 A3026 RMK A01 T10121014  RH  099%=      5-min Rain = 0
KAI1 080930Z 02006KT M01/M01 A3026 RMK A01 T10121014  RH  099%=      5-min Rain = 0
KAI1 080931Z 02007KT M01/M02 A3026 RMK A01 T10131015  RH  099%=      5-min Rain = 0
KAI1 080932Z 02007KT M01/M01 A3026 RMK A01 T10121014  RH  099%=      5-min Rain = 0
KAI1 080933Z 02007KT M01/M01 A3026 RMK A01 T10131014  RH  099%=      5-min Rain = 0
KAI1 080934Z 02007KT M01/M01 A3026 RMK A01 T10121014  RH  099%=      5-min Rain = 0
KAI1 080935Z 02007KT M01/M01 A3026 RMK A01 T10121014  RH  099%=      5-min Rain = 0
KAI1 080936Z 02008KT M01/M01 A3026 RMK A01 T10131014  RH  099%=      5-min Rain = 0
KAI1 080937Z 02007KT M01/M01 A3026 RMK A01 T10121014  RH  099%=      5-min Rain = 0
KAI1 080938Z 02007KT M01/M01 A3026 RMK A01 T10121014  RH  099%=      5-min Rain = 0
KAI1 080939Z 02007KT M01/M01 A3026 RMK A01 T10131014  RH  099%=      5-min Rain = 0
KAI1 080940Z 02007KT M01/M01 A3026 RMK A01 T10121014  RH  099%=      5-min Rain = 0
KAI1 080941Z 02008KT M01/M01 A3026 RMK A01 T10121014  RH  099%=      5-min Rain = 0
KAI1 080942Z 02007KT M01/M01 A3026 RMK A01 T10131014  RH  099%=      5-min Rain = 0
KAI1 080943Z 02007KT M01/M01 A3026 RMK A01 T10131014  RH  099%=      5-min Rain = 0
KAI1 080944Z 02006KT M01/M01 A3026 RMK A01 T10121014  RH  099%=      5-min Rain = 0
KAI1 080945Z 02007KT M01/M01 A3026 RMK A01 T10121014  RH  099%=      5-min Rain = 0
KAI1 080946Z 02007KT M01/M01 A3026 RMK A01 T10121014  RH  099%=      5-min Rain = 0
KAI1 080947Z 02007KT M01/M01 A3026 RMK A01 T10131014  RH  099%=      5-min Rain = 0
KAI1 080948Z 02006KT M01/M01 A3026 RMK A01 T10131014  RH  099%=      5-min Rain = 0
KAI1 080949Z 02006KT M01/M01 A3026 RMK A01 T10121014  RH  099%=      5-min Rain = 0
KAI1 080950Z 02005KT M01/M01 A3026 RMK A01 T10121014  RH  099%=      5-min Rain = 0
KAI1 080951Z 01006KT M01/M01 A3026 RMK A01 T10121014  RH  099%=      5-min Rain = 0
KAI1 080952Z 02005KT M01/M01 A3026 RMK A01 T10131014  RH  099%=      5-min Rain = 0
KAI1 080953Z 02005KT M01/M02 A3026 RMK A01 T10131015  RH  099%=      5-min Rain = 0
KAI1 080954Z 02005KT M01/M02 A3026 RMK A01 T10131015  RH  099%=      5-min Rain = 0
KAI1 080955Z 02005KT M01/M02 A3026 RMK A01 T10131015  RH  099%=      5-min Rain = 0
KAI1 080956Z 02006KT M01/M01 A3026 RMK A01 T10131014  RH  099%=      5-min Rain = 0
KAI1 080957Z 02007KT M01/M02 A3026 RMK A01 T10131015  RH  099%=      5-min Rain = 0
KAI1 080958Z 02006KT M01/M02 A3025 RMK A01 T10131015  RH  099%=      5-min Rain = 0
KAI1 080959Z 02007KT M01/M02 A3025 RMK A01 T10141015  RH  099%=      5-min Rain = 0
KAI1 081000Z 02007KT M01/M02 A3025 RMK A01 T10131015  RH  099%=      5-min Rain = 0
KAI1 081001Z 02007KT M01/M02 A3025 RMK A01 T10131015  RH  099%=      5-min Rain = 0
KAI1 081002Z 02007KT M01/M02 A3025 RMK A01 T10131015  RH  099%=      5-min Rain = 0
KAI1 081003Z 02007KT M01/M02 A3025 RMK A01 T10141015  RH  099%=      5-min Rain = 0
KAI1 081004Z 02007KT M01/M02 A3025 RMK A01 T10141015  RH  099%=      5-min Rain = 0
KAI1 081005Z 02007KT M01/M02 A3025 RMK A01 T10141015  RH  099%=      5-min Rain = 0
KAI1 081006Z 02008KT M01/M02 A3025 RMK A01 T10141015  RH  099%=      5-min Rain = 0
KAI1 081007Z 02008KT M01/M02 A3025 RMK A01 T10141016  RH  099%=      5-min Rain = 0
KAI1 081008Z 02008KT M01/M02 A3025 RMK A01 T10141016  RH  099%=      5-min Rain = 0
KAI1 081009Z 02009KT M01/M02 A3025 RMK A01 T10141016  RH  099%=      5-min Rain = 0
KAI1 081010Z 02008KT M01/M02 A3025 RMK A01 T10141016  RH  099%=      5-min Rain = 0
KAI1 081011Z 02008KT M02/M02 A3025 RMK A01 T10151016  RH  099%=      5-min Rain = 0
KAI1 081012Z 02009KT M02/M02 A3025 RMK A01 T10151016  RH  099%=      5-min Rain = 0
KAI1 081013Z 02008KT M02/M02 A3025 RMK A01 T10151016  RH  099%=      5-min Rain = 0
KAI1 081014Z 02008KT M01/M02 A3025 RMK A01 T10141016  RH  099%=      5-min Rain = 0
KAI1 081015Z 02008KT M02/M02 A3025 RMK A01 T10151016  RH  099%=      5-min Rain = 0
KAI1 081016Z 02007KT M02/M02 A3025 RMK A01 T10151016  RH  099%=      5-min Rain = 0
KAI1 081017Z 02008KT M02/M02 A3025 RMK A01 T10151016  RH  099%=      5-min Rain = 0
KAI1 081018Z 02008KT M02/M02 A3025 RMK A01 T10151016  RH  099%=      5-min Rain = 0
KAI1 081019Z 02008KT M01/M02 A3025 RMK A01 T10141016  RH  099%=      5-min Rain = 0
KAI1 081020Z 02007KT M02/M02 A3025 RMK A01 T10151016  RH  099%=      5-min Rain = 0
KAI1 081021Z 02007KT M02/M02 A3025 RMK A01 T10151016  RH  099%=      5-min Rain = 0
KAI1 081022Z 02007KT M02/M02 A3025 RMK A01 T10151017  RH  099%=      5-min Rain = 0
KAI1 081023Z 03007KT M02/M02 A3025 RMK A01 T10151017  RH  099%=      5-min Rain = 0
KAI1 081024Z 02007KT M02/M02 A3025 RMK A01 T10151017  RH  099%=      5-min Rain = 0
KAI1 081025Z 02006KT M02/M02 A3024 RMK A01 T10151017  RH  099%=      5-min Rain = 0
KAI1 081026Z 02007KT M02/M02 A3024 RMK A01 T10151017  RH  099%=      5-min Rain = 0
KAI1 081027Z 02007KT M02/M02 A3024 RMK A01 T10151017  RH  099%=      5-min Rain = 0
KAI1 081028Z 03007KT M02/M02 A3024 RMK A01 T10151017  RH  099%=      5-min Rain = 0
KAI1 081029Z 02006KT M02/M02 A3024 RMK A01 T10151017  RH  099%=      5-min Rain = 0
KAI1 081030Z 02008KT M02/M02 A3024 RMK A01 T10151017  RH  099%=      5-min Rain = 0
KAI1 081031Z 02007KT M02/M02 A3024 RMK A01 T10151017  RH  099%=      5-min Rain = 0
KAI1 081032Z 02008KT M02/M02 A3024 RMK A01 T10151017  RH  099%=      5-min Rain = 0
KAI1 081033Z 02008KT M02/M02 A3024 RMK A01 T10151017  RH  099%=      5-min Rain = 0
KAI1 081034Z 02008KT M02/M02 A3024 RMK A01 T10161017  RH  099%=      5-min Rain = 0
KAI1 081035Z 02008KT M02/M02 A3024 RMK A01 T10161017  RH  099%=      5-min Rain = 0
KAI1 081036Z 02007KT M02/M02 A3024 RMK A01 T10161017  RH  099%=      5-min Rain = 0
KAI1 081037Z 02007KT M02/M02 A3024 RMK A01 T10161017  RH  099%=      5-min Rain = 0
KAI1 081038Z 02007KT M02/M02 A3024 RMK A01 T10161017  RH  099%=      5-min Rain = 0
KAI1 081039Z 02007KT M02/M02 A3024 RMK A01 T10161017  RH  099%=      5-min Rain = 0
KAI1 081040Z 02008KT M02/M02 A3024 RMK A01 T10161017  RH  099%=      5-min Rain = 0
KAI1 081041Z 02008KT M02/M02 A3024 RMK A01 T10161017  RH  099%=      5-min Rain = 0
KAI1 081042Z 02008KT M02/M02 A3024 RMK A01 T10161017  RH  099%=      5-min Rain = 0
KAI1 081043Z 02009KT M02/M02 A3024 RMK A01 T10161017  RH  099%=      5-min Rain = 0
KAI1 081044Z 02009KT M02/M02 A3024 RMK A01 T10161018  RH  099%=      5-min Rain = 0
KAI1 081045Z 02008KT M02/M02 A3024 RMK A01 T10161018  RH  099%=      5-min Rain = 0
KAI1 081046Z 02010KT M02/M02 A3024 RMK A01 T10161018  RH  099%=      5-min Rain = 0
KAI1 081047Z 02009KT M02/M02 A3024 RMK A01 T10161018  RH  099%=      5-min Rain = 0
KAI1 081048Z 02009KT M02/M02 A3024 RMK A01 T10161018  RH  099%=      5-min Rain = 0
KAI1 081049Z 02009KT M02/M02 A3024 RMK A01 T10171018  RH  099%=      5-min Rain = 0
KAI1 081050Z 02008KT M02/M02 A3024 RMK A01 T10171018  RH  099%=      5-min Rain = 0
KAI1 081051Z 02008KT M02/M02 A3024 RMK A01 T10171018  RH  099%=      5-min Rain = 0
KAI1 081052Z 02007KT M02/M02 A3024 RMK A01 T10171018  RH  099%=      5-min Rain = 0
KAI1 081053Z 02009KT M02/M02 A3024 RMK A01 T10171019  RH  099%=      5-min Rain = 0
KAI1 081054Z 02008KT M02/M02 A3024 RMK A01 T10171019  RH  099%=      5-min Rain = 0
KAI1 081055Z 02009KT M02/M02 A3024 RMK A01 T10171019  RH  099%=      5-min Rain = 0
KAI1 081056Z 02010KT M02/M02 A3024 RMK A01 T10171019  RH  099%=      5-min Rain = 0
KAI1 081057Z 02009KT M02/M02 A3024 RMK A01 T10171019  RH  099%=      5-min Rain = 0
KAI1 081058Z 02010KT M02/M02 A3024 RMK A01 T10171019  RH  099%=      5-min Rain = 0
KAI1 081059Z 02010KT M02/M02 A3024 RMK A01 T10171019  RH  099%=      5-min Rain = 0
KAI1 081100Z 02011KT M02/M02 A3024 RMK A01 T10181019  RH  099%=      5-min Rain = 0
KAI1 081101Z 02010KT M02/M02 A3024 RMK A01 T10181020  RH  099%=      5-min Rain = 0
KAI1 081102Z 02009KT M02/M02 A3024 RMK A01 T10181020  RH  099%=      5-min Rain = 0
KAI1 081103Z 01010KT M02/M02 A3024 RMK A01 T10181020  RH  099%=      5-min Rain = 0
KAI1 081104Z 02009KT M02/M02 A3024 RMK A01 T10181020  RH  099%=      5-min Rain = 0
KAI1 081105Z 01008KT M02/M02 A3024 RMK A01 T10181020  RH  099%=      5-min Rain = 0
KAI1 081106Z 02008KT M02/M02 A3024 RMK A01 T10181020  RH  099%=      5-min Rain = 0
KAI1 081107Z 02009KT M02/M02 A3024 RMK A01 T10181020  RH  099%=      5-min Rain = 0
KAI1 081108Z 02009KT M02/M02 A3024 RMK A01 T10181020  RH  099%=      5-min Rain = 0
KAI1 081109Z 02008KT M02/M02 A3024 RMK A01 T10181020  RH  099%=      5-min Rain = 0
KAI1 081110Z 02008KT M02/M02 A3024 RMK A01 T10181020  RH  099%=      5-min Rain = 0
KAI1 081111Z 02007KT M02/M02 A3024 RMK A01 T10181020  RH  099%=      5-min Rain = 0
KAI1 081112Z 02009KT M02/M02 A3024 RMK A01 T10181019  RH  099%=      5-min Rain = 0
KAI1 081113Z 02009KT M02/M02 A3024 RMK A01 T10181020  RH  099%=      5-min Rain = 0
KAI1 081114Z 02009KT M02/M02 A3024 RMK A01 T10181020  RH  099%=      5-min Rain = 0
KAI1 081115Z 02010KT M02/M02 A3024 RMK A01 T10191020  RH  099%=      5-min Rain = 0
KAI1 081116Z 02009KT M02/M02 A3024 RMK A01 T10191021  RH  099%=      5-min Rain = 0
KAI1 081117Z 02008KT M02/M02 A3024 RMK A01 T10191021  RH  099%=      5-min Rain = 0
KAI1 081118Z 02007KT M02/M02 A3024 RMK A01 T10191021  RH  099%=      5-min Rain = 0
KAI1 081119Z 02009KT M02/M02 A3024 RMK A01 T10191021  RH  099%=      5-min Rain = 0
KAI1 081120Z 02008KT M02/M02 A3024 RMK A01 T10191021  RH  099%=      5-min Rain = 0
KAI1 081121Z 02009KT M02/M02 A3024 RMK A01 T10191021  RH  099%=      5-min Rain = 0
KAI1 081122Z 02009KT M02/M02 A3024 RMK A01 T10191021  RH  099%=      5-min Rain = 0
KAI1 081123Z 02008KT M02/M02 A3024 RMK A01 T10191021  RH  099%=      5-min Rain = 0
KAI1 081124Z 02008KT M02/M02 A3025 RMK A01 T10191021  RH  099%=      5-min Rain = 0
KAI1 081125Z 02008KT M02/M02 A3025 RMK A01 T10191021  RH  099%=      5-min Rain = 0
KAI1 081126Z 01008KT M02/M02 A3025 RMK A01 T10191021  RH  099%=      5-min Rain = 0
KAI1 081127Z 02009KT M02/M02 A3025 RMK A01 T10191021  RH  099%=      5-min Rain = 0
KAI1 081128Z 02009KT M02/M02 A3025 RMK A01 T10191021  RH  099%=      5-min Rain = 0
KAI1 081129Z 02008KT M02/M02 A3025 RMK A01 T10191021  RH  099%=      5-min Rain = 0
KAI1 081130Z 02007KT M02/M02 A3025 RMK A01 T10191021  RH  099%=      5-min Rain = 0
KAI1 081131Z 01008KT M02/M02 A3025 RMK A01 T10191021  RH  099%=      5-min Rain = 0
KAI1 081132Z 02008KT M02/M02 A3025 RMK A01 T10201021  RH  099%=      5-min Rain = 0
KAI1 081133Z 01008KT M02/M02 A3025 RMK A01 T10191021  RH  099%=      5-min Rain = 0
KAI1 081134Z 02008KT M02/M02 A3025 RMK A01 T10201021  RH  099%=      5-min Rain = 0
KAI1 081135Z 02008KT M02/M02 A3025 RMK A01 T10191021  RH  099%=      5-min Rain = 0
KAI1 081136Z 02007KT M02/M02 A3025 RMK A01 T10191021  RH  099%=      5-min Rain = 0
KAI1 081137Z 02007KT M02/M02 A3025 RMK A01 T10191021  RH  099%=      5-min Rain = 0
KAI1 081138Z 02007KT M02/M02 A3025 RMK A01 T10191021  RH  099%=      5-min Rain = 0
KAI1 081139Z 02007KT M02/M02 A3025 RMK A01 T10191021  RH  099%=      5-min Rain = 0
KAI1 081140Z 02008KT M02/M02 A3025 RMK A01 T10191021  RH  099%=      5-min Rain = 0
KAI1 081141Z 01006KT M02/M02 A3025 RMK A01 T10191021  RH  099%=      5-min Rain = 0
KAI1 081142Z 02007KT M02/M02 A3025 RMK A01 T10191021  RH  099%=      5-min Rain = 0
KAI1 081143Z 02007KT M02/M02 A3025 RMK A01 T10191021  RH  099%=      5-min Rain = 0
KAI1 081144Z 02008KT M02/M02 A3025 RMK A01 T10191021  RH  099%=      5-min Rain = 0
KAI1 081145Z 01007KT M02/M02 A3025 RMK A01 T10201021  RH  099%=      5-min Rain = 0
KAI1 081146Z 02007KT M02/M02 A3025 RMK A01 T10191021  RH  099%=      5-min Rain = 0
KAI1 081147Z 02007KT M02/M02 A3025 RMK A01 T10191021  RH  099%=      5-min Rain = 0
KAI1 081148Z 02007KT M02/M02 A3025 RMK A01 T10191021  RH  099%=      5-min Rain = 0
KAI1 081149Z 02008KT M02/M02 A3025 RMK A01 T10191021  RH  099%=      5-min Rain = 0
KAI1 081150Z 02007KT M02/M02 A3025 RMK A01 T10191021  RH  099%=      5-min Rain = 0
KAI1 081151Z 02007KT M02/M02 A3025 RMK A01 T10191021  RH  099%=      5-min Rain = 0
KAI1 081152Z 02007KT M02/M02 A3026 RMK A01 T10191021  RH  099%=      5-min Rain = 0
KAI1 081153Z 02007KT M02/M02 A3026 RMK A01 T10191021  RH  099%=      5-min Rain = 0
KAI1 081154Z 02008KT M02/M02 A3026 RMK A01 T10191021  RH  099%=      5-min Rain = 0
KAI1 081155Z 02007KT M02/M02 A3026 RMK A01 T10191021  RH  099%=      5-min Rain = 0
KAI1 081156Z 02006KT M02/M02 A3026 RMK A01 T10201021  RH  099%=      5-min Rain = 0
KAI1 081157Z 02007KT M02/M02 A3026 RMK A01 T10191021  RH  099%=      5-min Rain = 0
KAI1 081158Z 02007KT M02/M02 A3026 RMK A01 T10191021  RH  099%=      5-min Rain = 0
KAI1 081159Z 02006KT M02/M02 A3026 RMK A01 T10191021  RH  099%=      5-min Rain = 0
KAI1 081200Z 02006KT M02/M02 A3026 RMK A01 T10191021  RH  099%=      5-min Rain = 0
KAI1 081201Z 02006KT M02/M02 A3026 RMK A01 T10191021  RH  099%=      5-min Rain = 0
KAI1 081202Z 01006KT M02/M02 A3026 RMK A01 T10191021  RH  099%=      5-min Rain = 0
KAI1 081203Z 02006KT M02/M02 A3026 RMK A01 T10191021  RH  099%=      5-min Rain = 0
KAI1 081204Z 02006KT M02/M02 A3026 RMK A01 T10191021  RH  099%=      5-min Rain = 0
KAI1 081205Z 01006KT M02/M02 A3026 RMK A01 T10191021  RH  099%=      5-min Rain = 0
KAI1 081206Z 01006KT M02/M02 A3026 RMK A01 T10191021  RH  099%=      5-min Rain = 0
KAI1 081207Z 01006KT M02/M02 A3026 RMK A01 T10191021  RH  099%=      5-min Rain = 0
KAI1 081208Z 01006KT M02/M02 A3026 RMK A01 T10191020  RH  099%=      5-min Rain = 0
KAI1 081209Z 01006KT M02/M02 A3026 RMK A01 T10191021  RH  099%=      5-min Rain = 0
KAI1 081210Z 01007KT M02/M02 A3026 RMK A01 T10191021  RH  099%=      5-min Rain = 0
KAI1 081211Z 01006KT M02/M02 A3026 RMK A01 T10191021  RH  099%=      5-min Rain = 0
KAI1 081212Z 01006KT M02/M02 A3026 RMK A01 T10191020  RH  099%=      5-min Rain = 0
KAI1 081213Z 01006KT M02/M02 A3026 RMK A01 T10181020  RH  099%=      5-min Rain = 0
KAI1 081214Z 01006KT M02/M02 A3026 RMK A01 T10191020  RH  099%=      5-min Rain = 0
KAI1 081215Z 01006KT M02/M02 A3026 RMK A01 T10181020  RH  099%=      5-min Rain = 0
KAI1 081216Z 01006KT M02/M02 A3026 RMK A01 T10181020  RH  099%=      5-min Rain = 0
KAI1 081217Z 01006KT M02/M02 A3026 RMK A01 T10181020  RH  099%=      5-min Rain = 0
KAI1 081218Z 01005KT M02/M02 A3026 RMK A01 T10181020  RH  099%=      5-min Rain = 0
KAI1 081219Z 01006KT M02/M02 A3026 RMK A01 T10181020  RH  099%=      5-min Rain = 0
KAI1 081220Z 00006KT M02/M02 A3026 RMK A01 T10181020  RH  099%=      5-min Rain = 0
KAI1 081221Z 01007KT M02/M02 A3026 RMK A01 T10191020  RH  099%=      5-min Rain = 0
KAI1 081222Z 01006KT M02/M02 A3026 RMK A01 T10191020  RH  099%=      5-min Rain = 0
KAI1 081223Z 01006KT M02/M02 A3026 RMK A01 T10191020  RH  099%=      5-min Rain = 0
KAI1 081224Z 01006KT M02/M02 A3026 RMK A01 T10191020  RH  099%=      5-min Rain = 0
KAI1 081225Z 01007KT M02/M02 A3026 RMK A01 T10181020  RH  099%=      5-min Rain = 0
KAI1 081226Z 01007KT M02/M02 A3026 RMK A01 T10181020  RH  099%=      5-min Rain = 0
KAI1 081227Z 01008KT M02/M02 A3026 RMK A01 T10181020  RH  099%=      5-min Rain = 0
KAI1 081228Z 01008KT M02/M02 A3026 RMK A01 T10191020  RH  099%=      5-min Rain = 0
KAI1 081229Z 01007KT M02/M02 A3026 RMK A01 T10191021  RH  099%=      5-min Rain = 0
KAI1 081230Z 01007KT M02/M02 A3026 RMK A01 T10191020  RH  099%=      5-min Rain = 0
KAI1 081231Z 01008KT M02/M02 A3026 RMK A01 T10191021  RH  099%=      5-min Rain = 0
KAI1 081232Z 01008KT M02/M02 A3026 RMK A01 T10191021  RH  099%=      5-min Rain = 0
KAI1 081233Z 01008KT M02/M02 A3026 RMK A01 T10191021  RH  099%=      5-min Rain = 0
KAI1 081234Z 01008KT M02/M02 A3026 RMK A01 T10191021  RH  099%=      5-min Rain = 0
KAI1 081235Z 01008KT M02/M02 A3026 RMK A01 T10191021  RH  099%=      5-min Rain = 0
KAI1 081236Z 01007KT M02/M02 A3026 RMK A01 T10191021  RH  099%=      5-min Rain = 0
KAI1 081237Z 01007KT M02/M02 A3026 RMK A01 T10191021  RH  099%=      5-min Rain = 0
KAI1 081238Z 01007KT M02/M02 A3026 RMK A01 T10191021  RH  099%=      5-min Rain = 0
KAI1 081239Z 01008KT M02/M02 A3026 RMK A01 T10191021  RH  099%=      5-min Rain = 0
KAI1 081240Z 01007KT M02/M02 A3026 RMK A01 T10191021  RH  099%=      5-min Rain = 0
KAI1 081241Z 01007KT M02/M02 A3026 RMK A01 T10191021  RH  099%=      5-min Rain = 0
KAI1 081242Z 01007KT M02/M02 A3026 RMK A01 T10191021  RH  099%=      5-min Rain = 0
KAI1 081243Z 02008KT M02/M02 A3026 RMK A01 T10191021  RH  099%=      5-min Rain = 0
KAI1 081244Z 02009KT M02/M02 A3026 RMK A01 T10191021  RH  099%=      5-min Rain = 0
KAI1 081245Z 02008KT M02/M02 A3026 RMK A01 T10191021  RH  099%=      5-min Rain = 0
KAI1 081246Z 02008KT M02/M02 A3026 RMK A01 T10191021  RH  099%=      5-min Rain = 0
KAI1 081247Z 02008KT M02/M02 A3026 RMK A01 T10191021  RH  099%=      5-min Rain = 0
KAI1 081248Z 01008KT M02/M02 A3026 RMK A01 T10191021  RH  099%=      5-min Rain = 0
KAI1 081249Z 02008KT M02/M02 A3026 RMK A01 T10201022  RH  099%=      5-min Rain = 0
KAI1 081250Z 02008KT M02/M02 A3026 RMK A01 T10201022  RH  099%=      5-min Rain = 0
KAI1 081251Z 02007KT M02/M02 A3027 RMK A01 T10201021  RH  099%=      5-min Rain = 0
KAI1 081252Z 02008KT M02/M02 A3027 RMK A01 T10191021  RH  099%=      5-min Rain = 0
KAI1 081253Z 01007KT M02/M02 A3027 RMK A01 T10201022  RH  099%=      5-min Rain = 0
KAI1 081254Z 02008KT M02/M02 A3027 RMK A01 T10201022  RH  099%=      5-min Rain = 0
KAI1 081255Z 02007KT M02/M02 A3027 RMK A01 T10201022  RH  099%=      5-min Rain = 0
KAI1 081256Z 02008KT M02/M02 A3027 RMK A01 T10201022  RH  099%=      5-min Rain = 0
KAI1 081257Z 02007KT M02/M02 A3027 RMK A01 T10201022  RH  099%=      5-min Rain = 0
KAI1 081258Z 02007KT M02/M02 A3027 RMK A01 T10201022  RH  099%=      5-min Rain = 0
KAI1 081259Z 02008KT M02/M02 A3027 RMK A01 T10201022  RH  099%=      5-min Rain = 0
KAI1 081300Z 02007KT M02/M02 A3027 RMK A01 T10201021  RH  099%=      5-min Rain = 0
KAI1 081301Z 02006KT M02/M02 A3027 RMK A01 T10201022  RH  099%=      5-min Rain = 0
KAI1 081302Z 02007KT M02/M02 A3027 RMK A01 T10201022  RH  099%=      5-min Rain = 0
KAI1 081303Z 02007KT M02/M02 A3027 RMK A01 T10201022  RH  099%=      5-min Rain = 0
KAI1 081304Z 02007KT M02/M02 A3027 RMK A01 T10201022  RH  099%=      5-min Rain = 0
KAI1 081305Z 02006KT M02/M02 A3027 RMK A01 T10201022  RH  099%=      5-min Rain = 0
KAI1 081306Z 02007KT M02/M02 A3027 RMK A01 T10201021  RH  099%=      5-min Rain = 0
KAI1 081307Z 02007KT M02/M02 A3027 RMK A01 T10201021  RH  099%=      5-min Rain = 0
KAI1 081308Z 02007KT M02/M02 A3027 RMK A01 T10201021  RH  099%=      5-min Rain = 0
KAI1 081309Z 02006KT M02/M02 A3027 RMK A01 T10201022  RH  099%=      5-min Rain = 0
KAI1 081310Z 02007KT M02/M02 A3027 RMK A01 T10201022  RH  099%=      5-min Rain = 0
KAI1 081311Z 02007KT M02/M02 A3027 RMK A01 T10201022  RH  099%=      5-min Rain = 0
KAI1 081312Z 02006KT M02/M02 A3027 RMK A01 T10201022  RH  099%=      5-min Rain = 0
KAI1 081313Z 02006KT M02/M02 A3027 RMK A01 T10201022  RH  099%=      5-min Rain = 0
KAI1 081314Z 03006KT M02/M02 A3027 RMK A01 T10201021  RH  099%=      5-min Rain = 0
KAI1 081315Z 02006KT M02/M02 A3027 RMK A01 T10201021  RH  099%=      5-min Rain = 0
KAI1 081316Z 02006KT M02/M02 A3027 RMK A01 T10201022  RH  099%=      5-min Rain = 0
KAI1 081317Z 03006KT M02/M02 A3027 RMK A01 T10201021  RH  099%=      5-min Rain = 0
KAI1 081318Z 03005KT M02/M02 A3027 RMK A01 T10201021  RH  099%=      5-min Rain = 0
KAI1 081319Z 02006KT M02/M02 A3027 RMK A01 T10201022  RH  099%=      5-min Rain = 0
KAI1 081320Z 03005KT M02/M02 A3027 RMK A01 T10201021  RH  099%=      5-min Rain = 0
KAI1 081321Z 03005KT M02/M02 A3027 RMK A01 T10201021  RH  099%=      5-min Rain = 0
KAI1 081322Z 03005KT M02/M02 A3027 RMK A01 T10201022  RH  099%=      5-min Rain = 0
KAI1 081323Z 03005KT M02/M02 A3027 RMK A01 T10201022  RH  099%=      5-min Rain = 0
KAI1 081324Z 03005KT M02/M02 A3027 RMK A01 T10201021  RH  099%=      5-min Rain = 0
KAI1 081325Z 02005KT M02/M02 A3027 RMK A01 T10201022  RH  099%=      5-min Rain = 0
KAI1 081326Z 03008KT M02/M02 A3028 RMK A01 T10201022  RH  099%=      5-min Rain = 0
KAI1 081327Z 03007KT M02/M02 A3028 RMK A01 T10201021  RH  099%=      5-min Rain = 0
KAI1 081328Z 02007KT M02/M02 A3028 RMK A01 T10201022  RH  099%=      5-min Rain = 0
KAI1 081329Z 02006KT M02/M02 A3028 RMK A01 T10201022  RH  099%=      5-min Rain = 0
KAI1 081330Z 03006KT M02/M02 A3028 RMK A01 T10201022  RH  099%=      5-min Rain = 0
KAI1 081331Z 03006KT M02/M02 A3028 RMK A01 T10201022  RH  099%=      5-min Rain = 0
KAI1 081332Z 03005KT M02/M02 A3028 RMK A01 T10201021  RH  099%=      5-min Rain = 0
KAI1 081333Z 03006KT M02/M02 A3028 RMK A01 T10201022  RH  099%=      5-min Rain = 0
KAI1 081334Z 02005KT M02/M02 A3028 RMK A01 T10201021  RH  099%=      5-min Rain = 0
KAI1 081335Z 02005KT M02/M02 A3028 RMK A01 T10201022  RH  099%=      5-min Rain = 0
KAI1 081336Z 02006KT M02/M02 A3028 RMK A01 T10201022  RH  099%=      5-min Rain = 0
KAI1 081337Z 02006KT M02/M02 A3028 RMK A01 T10201022  RH  099%=      5-min Rain = 0
KAI1 081338Z 02005KT M02/M02 A3028 RMK A01 T10201021  RH  099%=      5-min Rain = 0
KAI1 081339Z 02005KT M02/M02 A3028 RMK A01 T10201022  RH  099%=      5-min Rain = 0
KAI1 081340Z 02006KT M02/M02 A3028 RMK A01 T10201022  RH  099%=      5-min Rain = 0
KAI1 081341Z 02005KT M02/M02 A3028 RMK A01 T10201022  RH  099%=      5-min Rain = 0
KAI1 081342Z 02005KT M02/M02 A3028 RMK A01 T10201022  RH  099%=      5-min Rain = 0
KAI1 081343Z 02004KT M02/M02 A3028 RMK A01 T10201022  RH  099%=      5-min Rain = 0
KAI1 081344Z 02005KT M02/M02 A3028 RMK A01 T10201022  RH  099%=      5-min Rain = 0
KAI1 081345Z 02005KT M02/M02 A3028 RMK A01 T10201022  RH  099%=      5-min Rain = 0
KAI1 081346Z 02005KT M02/M02 A3028 RMK A01 T10201021  RH  099%=      5-min Rain = 0
KAI1 081347Z 02005KT M02/M02 A3028 RMK A01 T10201022  RH  099%=      5-min Rain = 0
KAI1 081348Z 02005KT M02/M02 A3028 RMK A01 T10201022  RH  099%=      5-min Rain = 0
KAI1 081349Z 02005KT M02/M02 A3028 RMK A01 T10201021  RH  099%=      5-min Rain = 0
KAI1 081350Z 02004KT M02/M02 A3029 RMK A01 T10201021  RH  099%=      5-min Rain = 0
KAI1 081351Z 02004KT M02/M02 A3029 RMK A01 T10201022  RH  099%=      5-min Rain = 0
KAI1 081352Z 02004KT M02/M02 A3029 RMK A01 T10201021  RH  099%=      5-min Rain = 0
KAI1 081353Z 02004KT M02/M02 A3029 RMK A01 T10201022  RH  099%=      5-min Rain = 0
KAI1 081354Z 01004KT M02/M02 A3029 RMK A01 T10201021  RH  099%=      5-min Rain = 0
KAI1 081355Z 01005KT M02/M02 A3029 RMK A01 T10201022  RH  099%=      5-min Rain = 0
KAI1 081356Z 02005KT M02/M02 A3029 RMK A01 T10201021  RH  099%=      5-min Rain = 0
KAI1 081357Z 02004KT M02/M02 A3029 RMK A01 T10201022  RH  099%=      5-min Rain = 0
KAI1 081358Z 01004KT M02/M02 A3029 RMK A01 T10201022  RH  099%=      5-min Rain = 0
KAI1 081359Z 02004KT M02/M02 A3029 RMK A01 T10201022  RH  099%=      5-min Rain = 0
KAI1 081400Z 02004KT M02/M02 A3029 RMK A01 T10201022  RH  099%=      5-min Rain = 0
KAI1 081401Z 02004KT M02/M02 A3029 RMK A01 T10201022  RH  099%=      5-min Rain = 0
KAI1 081402Z 02004KT M02/M02 A3029 RMK A01 T10201022  RH  099%=      5-min Rain = 0
KAI1 081403Z 02004KT M02/M02 A3029 RMK A01 T10201022  RH  099%=      5-min Rain = 0
KAI1 081404Z 02004KT M02/M02 A3029 RMK A01 T10201022  RH  099%=      5-min Rain = 0
KAI1 081405Z 03004KT M02/M02 A3029 RMK A01 T10201022  RH  099%=      5-min Rain = 0
KAI1 081406Z 02004KT M02/M02 A3029 RMK A01 T10201021  RH  099%=      5-min Rain = 0
KAI1 081407Z 01004KT M02/M02 A3029 RMK A01 T10201022  RH  099%=      5-min Rain = 0
KAI1 081408Z 01003KT M02/M02 A3029 RMK A01 T10201022  RH  099%=      5-min Rain = 0
KAI1 081409Z 01004KT M02/M02 A3029 RMK A01 T10201022  RH  099%=      5-min Rain = 0
KAI1 081410Z 01003KT M02/M02 A3029 RMK A01 T10191021  RH  099%=      5-min Rain = 0
KAI1 081411Z 01004KT M02/M02 A3029 RMK A01 T10201021  RH  099%=      5-min Rain = 0
KAI1 081412Z 01004KT M02/M02 A303 RMK A01 T10201022  RH  099%=      5-min Rain = 0
KAI1 081413Z 01005KT M02/M02 A303 RMK A01 T10201022  RH  099%=      5-min Rain = 0
KAI1 081414Z 01005KT M02/M02 A303 RMK A01 T10201022  RH  099%=      5-min Rain = 0
KAI1 081415Z 01005KT M02/M02 A303 RMK A01 T10201022  RH  099%=      5-min Rain = 0
KAI1 081416Z 02006KT M02/M02 A303 RMK A01 T10201022  RH  099%=      5-min Rain = 0
KAI1 081417Z 01005KT M02/M02 A303 RMK A01 T10201022  RH  099%=      5-min Rain = 0
KAI1 081418Z 02006KT M02/M02 A303 RMK A01 T10201022  RH  099%=      5-min Rain = 0
KAI1 081419Z 01005KT M02/M02 A303 RMK A01 T10201022  RH  099%=      5-min Rain = 0
KAI1 081420Z 01004KT M02/M02 A303 RMK A01 T10201022  RH  099%=      5-min Rain = 0
KAI1 081421Z 01005KT M02/M02 A303 RMK A01 T10201022  RH  099%=      5-min Rain = 0
KAI1 081422Z 01004KT M02/M02 A303 RMK A01 T10201022  RH  099%=      5-min Rain = 0
KAI1 081423Z 01005KT M02/M02 A303 RMK A01 T10201022  RH  099%=      5-min Rain = 0
KAI1 081424Z 01006KT M02/M02 A303 RMK A01 T10201022  RH  099%=      5-min Rain = 0
KAI1 081425Z 01005KT M02/M02 A303 RMK A01 T10201022  RH  099%=      5-min Rain = 0
KAI1 081426Z 00005KT M02/M02 A303 RMK A01 T10201022  RH  099%=      5-min Rain = 0
KAI1 081427Z 00004KT M02/M02 A303 RMK A01 T10201022  RH  099%=      5-min Rain = 0
KAI1 081428Z 01004KT M02/M02 A303 RMK A01 T10201022  RH  099%=      5-min Rain = 0
KAI1 081429Z 01005KT M02/M02 A303 RMK A01 T10201022  RH  099%=      5-min Rain = 0
KAI1 081430Z 01004KT M02/M02 A303 RMK A01 T10201022  RH  099%=      5-min Rain = 0
KAI1 081431Z 01004KT M02/M02 A303 RMK A01 T10201022  RH  099%=      5-min Rain = 0
KAI1 081432Z 01004KT M02/M02 A303 RMK A01 T10201022  RH  099%=      5-min Rain = 0
KAI1 081433Z 01004KT M02/M02 A303 RMK A01 T10201022  RH  099%=      5-min Rain = 0
KAI1 081434Z 00003KT M02/M02 A303 RMK A01 T10201022  RH  099%=      5-min Rain = 0
KAI1 081435Z 36003KT M02/M02 A303 RMK A01 T10201022  RH  099%=      5-min Rain = 0
KAI1 081436Z 00003KT M02/M02 A303 RMK A01 T10191021  RH  099%=      5-min Rain = 0
KAI1 081437Z 36003KT M02/M02 A303 RMK A01 T10191021  RH  099%=      5-min Rain = 0
KAI1 081438Z 00003KT M02/M02 A303 RMK A01 T10191021  RH  099%=      5-min Rain = 0
KAI1 081439Z 00004KT M02/M02 A303 RMK A01 T10191021  RH  099%=      5-min Rain = 0
KAI1 081440Z 36004KT M02/M02 A303 RMK A01 T10191021  RH  099%=      5-min Rain = 0
KAI1 081441Z 36004KT M02/M02 A303 RMK A01 T10191021  RH  099%=      5-min Rain = 0
KAI1 081442Z 36003KT M02/M02 A303 RMK A01 T10191021  RH  099%=      5-min Rain = 0
KAI1 081443Z 35004KT M02/M02 A3031 RMK A01 T10191021  RH  099%=      5-min Rain = 0
KAI1 081444Z 35003KT M02/M02 A3031 RMK A01 T10191021  RH  099%=      5-min Rain = 0
KAI1 081445Z 35003KT M02/M02 A3031 RMK A01 T10191021  RH  099%=      5-min Rain = 0
KAI1 081446Z 34003KT M02/M02 A3031 RMK A01 T10191021  RH  099%=      5-min Rain = 0
KAI1 081447Z 34003KT M02/M02 A3031 RMK A01 T10191021  RH  099%=      5-min Rain = 0
KAI1 081448Z 34002KT M02/M02 A3031 RMK A01 T10181020  RH  099%=      5-min Rain = 0
KAI1 081449Z 33003KT M02/M02 A3031 RMK A01 T10181020  RH  099%=      5-min Rain = 0
KAI1 081450Z 33003KT M02/M02 A3031 RMK A01 T10181020  RH  099%=      5-min Rain = 0
KAI1 081451Z 34003KT M02/M02 A3031 RMK A01 T10181020  RH  099%=      5-min Rain = 0
KAI1 081452Z 33003KT M02/M02 A3031 RMK A01 T10181020  RH  099%=      5-min Rain = 0
KAI1 081453Z 34004KT M02/M02 A3031 RMK A01 T10181020  RH  099%=      5-min Rain = 0
KAI1 081454Z 34004KT M02/M02 A3031 RMK A01 T10181020  RH  099%=      5-min Rain = 0
KAI1 081455Z 34004KT M02/M02 A3031 RMK A01 T10181020  RH  099%=      5-min Rain = 0
KAI1 081456Z 34003KT M02/M02 A3031 RMK A01 T10181020  RH  099%=      5-min Rain = 0
KAI1 081457Z 34003KT M02/M02 A3031 RMK A01 T10181020  RH  099%=      5-min Rain = 0
KAI1 081458Z 34004KT M02/M02 A3031 RMK A01 T10181020  RH  099%=      5-min Rain = 0
KAI1 081459Z 34003KT M02/M02 A3031 RMK A01 T10181020  RH  099%=      5-min Rain = 0
KAI1 081500Z 35004KT M02/M02 A3031 RMK A01 T10181020  RH  099%=      5-min Rain = 0
KAI1 081501Z 35004KT M02/M02 A3031 RMK A01 T10181020  RH  099%=      5-min Rain = 0
KAI1 081502Z 35004KT M02/M02 A3031 RMK A01 T10181020  RH  099%=      5-min Rain = 0
KAI1 081503Z 34003KT M02/M02 A3031 RMK A01 T10181020  RH  099%=      5-min Rain = 0
KAI1 081504Z 34003KT M02/M02 A3031 RMK A01 T10181020  RH  099%=      5-min Rain = 0
KAI1 081505Z 34004KT M02/M02 A3031 RMK A01 T10181020  RH  099%=      5-min Rain = 0
KAI1 081506Z 34004KT M02/M02 A3031 RMK A01 T10181020  RH  099%=      5-min Rain = 0
KAI1 081507Z 34004KT M02/M02 A3031 RMK A01 T10181020  RH  099%=      5-min Rain = 0
KAI1 081508Z 35004KT M02/M02 A3031 RMK A01 T10181020  RH  098%=      5-min Rain = 0
KAI1 081509Z 34004KT M02/M02 A3031 RMK A01 T10181020  RH  099%=      5-min Rain = 0
KAI1 081510Z 34004KT M02/M02 A3031 RMK A01 T10171020  RH  098%=      5-min Rain = 0
KAI1 081511Z 34004KT M02/M02 A3032 RMK A01 T10171020  RH  098%=      5-min Rain = 0
KAI1 081512Z 34004KT M02/M02 A3032 RMK A01 T10181020  RH  098%=      5-min Rain = 0
KAI1 081513Z 34004KT M02/M02 A3032 RMK A01 T10181020  RH  098%=      5-min Rain = 0
KAI1 081514Z 34003KT M02/M02 A3032 RMK A01 T10171019  RH  098%=      5-min Rain = 0
KAI1 081515Z 34004KT M02/M02 A3032 RMK A01 T10171019  RH  098%=      5-min Rain = 0
KAI1 081516Z 34005KT M02/M02 A3032 RMK A01 T10171019  RH  098%=      5-min Rain = 0
KAI1 081517Z 34005KT M02/M02 A3032 RMK A01 T10171019  RH  098%=      5-min Rain = 0
KAI1 081518Z 35005KT M02/M02 A3032 RMK A01 T10171019  RH  098%=      5-min Rain = 0
KAI1 081519Z 34004KT M02/M02 A3032 RMK A01 T10171019  RH  098%=      5-min Rain = 0
KAI1 081520Z 34004KT M02/M02 A3032 RMK A01 T10171020  RH  098%=      5-min Rain = 0
KAI1 081521Z 34004KT M02/M02 A3032 RMK A01 T10171019  RH  098%=      5-min Rain = 0
KAI1 081522Z 34004KT M02/M02 A3032 RMK A01 T10171019  RH  098%=      5-min Rain = 0
KAI1 081523Z 34004KT M02/M02 A3032 RMK A01 T10161019  RH  098%=      5-min Rain = 0
KAI1 081524Z 34004KT M02/M02 A3032 RMK A01 T10171019  RH  098%=      5-min Rain = 0
KAI1 081525Z 34004KT M02/M02 A3032 RMK A01 T10161018  RH  098%=      5-min Rain = 0
KAI1 081526Z 34004KT M02/M02 A3032 RMK A01 T10161018  RH  098%=      5-min Rain = 0
KAI1 081527Z 34004KT M02/M02 A3032 RMK A01 T10161018  RH  098%=      5-min Rain = 0
KAI1 081528Z 33004KT M02/M02 A3032 RMK A01 T10161018  RH  098%=      5-min Rain = 0
KAI1 081529Z 33005KT M02/M02 A3032 RMK A01 T10161018  RH  098%=      5-min Rain = 0
KAI1 081530Z 33005KT M02/M02 A3032 RMK A01 T10161018  RH  098%=      5-min Rain = 0
KAI1 081531Z 33005KT M02/M02 A3032 RMK A01 T10151018  RH  098%=      5-min Rain = 0
KAI1 081532Z 34005KT M02/M02 A3032 RMK A01 T10151018  RH  098%=      5-min Rain = 0
KAI1 081533Z 33006KT M02/M02 A3032 RMK A01 T10161018  RH  098%=      5-min Rain = 0
KAI1 081534Z 34005KT M02/M02 A3032 RMK A01 T10161018  RH  098%=      5-min Rain = 0
KAI1 081535Z 33005KT M02/M02 A3032 RMK A01 T10161018  RH  098%=      5-min Rain = 0
KAI1 081536Z 34006KT M02/M02 A3032 RMK A01 T10161018  RH  098%=      5-min Rain = 0
KAI1 081537Z 34006KT M02/M02 A3032 RMK A01 T10161018  RH  098%=      5-min Rain = 0
KAI1 081538Z 34006KT M02/M02 A3032 RMK A01 T10151018  RH  098%=      5-min Rain = 0
KAI1 081539Z 34006KT M02/M02 A3032 RMK A01 T10151018  RH  098%=      5-min Rain = 0
KAI1 081540Z 34006KT M02/M02 A3032 RMK A01 T10161018  RH  098%=      5-min Rain = 0
KAI1 081541Z 34006KT M02/M02 A3032 RMK A01 T10161018  RH  098%=      5-min Rain = 0
KAI1 081542Z 34006KT M02/M02 A3032 RMK A01 T10161018  RH  098%=      5-min Rain = 0
KAI1 081543Z 34006KT M02/M02 A3032 RMK A01 T10161018  RH  098%=      5-min Rain = 0
KAI1 081544Z 34006KT M02/M02 A3032 RMK A01 T10161018  RH  098%=      5-min Rain = 0
KAI1 081545Z 34005KT M02/M02 A3032 RMK A01 T10151018  RH  098%=      5-min Rain = 0
KAI1 081546Z 34005KT M02/M02 A3032 RMK A01 T10161018  RH  098%=      5-min Rain = 0
KAI1 081547Z 34005KT M02/M02 A3032 RMK A01 T10151017  RH  098%=      5-min Rain = 0
KAI1 081548Z 34005KT M02/M02 A3032 RMK A01 T10151018  RH  098%=      5-min Rain = 0
KAI1 081549Z 34005KT M02/M02 A3032 RMK A01 T10151017  RH  098%=      5-min Rain = 0
KAI1 081550Z 34005KT M02/M02 A3032 RMK A01 T10151017  RH  098%=      5-min Rain = 0
KAI1 081551Z 34005KT M01/M02 A3032 RMK A01 T10141017  RH  098%=      5-min Rain = 0
KAI1 081552Z 34005KT M01/M02 A3032 RMK A01 T10141017  RH  098%=      5-min Rain = 0
KAI1 081553Z 34005KT M01/M02 A3032 RMK A01 T10141017  RH  098%=      5-min Rain = 0
KAI1 081554Z 34005KT M01/M02 A3032 RMK A01 T10141017  RH  098%=      5-min Rain = 0
KAI1 081555Z 34006KT M01/M02 A3032 RMK A01 T10141016  RH  098%=      5-min Rain = 0
KAI1 081556Z 34005KT M01/M02 A3032 RMK A01 T10141016  RH  098%=      5-min Rain = 0
KAI1 081557Z 34005KT M01/M02 A3032 RMK A01 T10141016  RH  098%=      5-min Rain = 0
KAI1 081558Z 35006KT M01/M02 A3032 RMK A01 T10141016  RH  098%=      5-min Rain = 0
KAI1 081559Z 34007KT M01/M02 A3032 RMK A01 T10141016  RH  098%=      5-min Rain = 0
KAI1 081600Z 34007KT M01/M02 A3032 RMK A01 T10141017  RH  098%=      5-min Rain = 0
KAI1 081601Z 35007KT M01/M02 A3032 RMK A01 T10141016  RH  098%=      5-min Rain = 0
KAI1 081602Z 35007KT M01/M02 A3032 RMK A01 T10141017  RH  098%=      5-min Rain = 0
KAI1 081603Z 35006KT M01/M02 A3032 RMK A01 T10131016  RH  098%=      5-min Rain = 0
KAI1 081604Z 35006KT M01/M02 A3032 RMK A01 T10141016  RH  098%=      5-min Rain = 0
KAI1 081605Z 35005KT M01/M02 A3032 RMK A01 T10141016  RH  098%=      5-min Rain = 0
KAI1 081606Z 35006KT M01/M02 A3032 RMK A01 T10141017  RH  098%=      5-min Rain = 0
KAI1 081607Z 35006KT M01/M02 A3032 RMK A01 T10141017  RH  098%=      5-min Rain = 0
KAI1 081608Z 35006KT M01/M02 A3032 RMK A01 T10141017  RH  098%=      5-min Rain = 0
KAI1 081609Z 35006KT M01/M02 A3032 RMK A01 T10141016  RH  098%=      5-min Rain = 0
KAI1 081610Z 34005KT M01/M02 A3032 RMK A01 T10141017  RH  098%=      5-min Rain = 0
KAI1 081611Z 35005KT M01/M02 A3032 RMK A01 T10131016  RH  098%=      5-min Rain = 0
KAI1 081612Z 35005KT M01/M02 A3032 RMK A01 T10131016  RH  098%=      5-min Rain = 0
KAI1 081613Z 35006KT M01/M02 A3033 RMK A01 T10131016  RH  098%=      5-min Rain = 0
KAI1 081614Z 35006KT M01/M02 A3033 RMK A01 T10131016  RH  098%=      5-min Rain = 0
KAI1 081615Z 35006KT M01/M02 A3033 RMK A01 T10131016  RH  098%=      5-min Rain = 0
KAI1 081616Z 35005KT M01/M02 A3033 RMK A01 T10131016  RH  098%=      5-min Rain = 0
KAI1 081617Z 35005KT M01/M02 A3033 RMK A01 T10131016  RH  098%=      5-min Rain = 0
KAI1 081618Z 35005KT M01/M02 A3033 RMK A01 T10131015  RH  098%=      5-min Rain = 0
KAI1 081619Z 35004KT M01/M02 A3033 RMK A01 T10121015  RH  098%=      5-min Rain = 0
KAI1 081620Z 35004KT M01/M02 A3033 RMK A01 T10121015  RH  098%=      5-min Rain = 0
KAI1 081621Z 34004KT M01/M02 A3032 RMK A01 T10121015  RH  098%=      5-min Rain = 0
KAI1 081622Z 34005KT M01/M01 A3032 RMK A01 T10111014  RH  098%=      5-min Rain = 0
KAI1 081623Z 34005KT M01/M01 A3032 RMK A01 T10111014  RH  098%=      5-min Rain = 0
KAI1 081624Z 34005KT M01/M01 A3033 RMK A01 T10111014  RH  098%=      5-min Rain = 0
KAI1 081625Z 35005KT M01/M01 A3033 RMK A01 T10111014  RH  098%=      5-min Rain = 0
KAI1 081626Z 35005KT M01/M01 A3033 RMK A01 T10111014  RH  098%=      5-min Rain = 0
KAI1 081627Z 34005KT M01/M01 A3033 RMK A01 T10111014  RH  098%=      5-min Rain = 0
KAI1 081628Z 34005KT M01/M01 A3033 RMK A01 T10111014  RH  098%=      5-min Rain = 0
KAI1 081629Z 35005KT M01/M01 A3033 RMK A01 T10111014  RH  098%=      5-min Rain = 0
KAI1 081630Z 35005KT M01/M01 A3033 RMK A01 T10111014  RH  098%=      5-min Rain = 0
KAI1 081631Z 35005KT M01/M01 A3033 RMK A01 T10111014  RH  098%=      5-min Rain = 0
KAI1 081632Z 35004KT M01/M01 A3033 RMK A01 T10111014  RH  098%=      5-min Rain = 0
KAI1 081633Z 35004KT M01/M01 A3033 RMK A01 T10111014  RH  098%=      5-min Rain = 0
KAI1 081634Z 35004KT M01/M01 A3033 RMK A01 T10111014  RH  098%=      5-min Rain = 0
KAI1 081635Z 35004KT M01/M01 A3033 RMK A01 T10111013  RH  098%=      5-min Rain = 0
KAI1 081636Z 35004KT M01/M01 A3033 RMK A01 T10101013  RH  098%=      5-min Rain = 0
KAI1 081637Z 35004KT M01/M01 A3033 RMK A01 T10101013  RH  098%=      5-min Rain = 0
KAI1 081638Z 00003KT M01/M01 A3033 RMK A01 T10101013  RH  098%=      5-min Rain = 0
KAI1 081639Z 00004KT M01/M01 A3033 RMK A01 T10101013  RH  098%=      5-min Rain = 0
KAI1 081640Z 36004KT M01/M01 A3033 RMK A01 T10101012  RH  098%=      5-min Rain = 0
KAI1 081641Z 00004KT M01/M01 A3033 RMK A01 T10091012  RH  098%=      5-min Rain = 0
KAI1 081642Z 01003KT M01/M01 A3033 RMK A01 T10091012  RH  098%=      5-min Rain = 0
KAI1 081643Z 00003KT M01/M01 A3033 RMK A01 T10091012  RH  098%=      5-min Rain = 0
KAI1 081644Z 00003KT M01/M01 A3033 RMK A01 T10091011  RH  098%=      5-min Rain = 0
KAI1 081645Z 01004KT M01/M01 A3033 RMK A01 T10091012  RH  098%=      5-min Rain = 0
KAI1 081646Z 00004KT M01/M01 A3033 RMK A01 T10091012  RH  098%=      5-min Rain = 0
KAI1 081647Z 35004KT M01/M01 A3033 RMK A01 T10091012  RH  098%=      5-min Rain = 0
KAI1 081648Z 35005KT M01/M01 A3033 RMK A01 T10091012  RH  098%=      5-min Rain = 0
KAI1 081649Z 35006KT M01/M01 A3033 RMK A01 T10091011  RH  098%=      5-min Rain = 0
KAI1 081650Z 35005KT M01/M01 A3033 RMK A01 T10091011  RH  098%=      5-min Rain = 0
KAI1 081651Z 35006KT M01/M01 A3033 RMK A01 T10091012  RH  098%=      5-min Rain = 0
KAI1 081652Z 00005KT M01/M01 A3033 RMK A01 T10091012  RH  098%=      5-min Rain = 0
KAI1 081653Z 01005KT M01/M01 A3033 RMK A01 T10091012  RH  098%=      5-min Rain = 0
KAI1 081654Z 01005KT M01/M01 A3033 RMK A01 T10091012  RH  098%=      5-min Rain = 0
KAI1 081655Z 01005KT M01/M01 A3033 RMK A01 T10091012  RH  098%=      5-min Rain = 0
KAI1 081656Z 01005KT M01/M01 A3033 RMK A01 T10091012  RH  098%=      5-min Rain = 0
KAI1 081657Z 02006KT M01/M01 A3033 RMK A01 T10091012  RH  098%=      5-min Rain = 0
KAI1 081658Z 03006KT M01/M01 A3033 RMK A01 T10101013  RH  098%=      5-min Rain = 0
KAI1 081659Z 03006KT M01/M02 A3033 RMK A01 T10121015  RH  098%=      5-min Rain = 0
KAI1 081700Z 02006KT M01/M02 A3033 RMK A01 T10131016  RH  098%=      5-min Rain = 0
KAI1 081701Z 02007KT M01/M02 A3033 RMK A01 T10141017  RH  098%=      5-min Rain = 0
KAI1 081702Z 03007KT M01/M02 A3033 RMK A01 T10141018  RH  098%=      5-min Rain = 0
KAI1 081703Z 02006KT M02/M02 A3033 RMK A01 T10151019  RH  098%=      5-min Rain = 0
KAI1 081704Z 02006KT M02/M02 A3033 RMK A01 T10161019  RH  098%=      5-min Rain = 0
KAI1 081705Z 02005KT M02/M02 A3033 RMK A01 T10161019  RH  098%=      5-min Rain = 0
KAI1 081706Z 02006KT M02/M02 A3033 RMK A01 T10161019  RH  098%=      5-min Rain = 0
KAI1 081707Z 02006KT M02/M02 A3033 RMK A01 T10151018  RH  098%=      5-min Rain = 0
KAI1 081708Z 02007KT M02/M02 A3033 RMK A01 T10161019  RH  098%=      5-min Rain = 0
KAI1 081709Z 02007KT M02/M02 A3033 RMK A01 T10161019  RH  098%=      5-min Rain = 0
KAI1 081710Z 02007KT M02/M02 A3033 RMK A01 T10151018  RH  098%=      5-min Rain = 0
KAI1 081711Z 02006KT M02/M02 A3033 RMK A01 T10161019  RH  098%=      5-min Rain = 0
KAI1 081712Z 02008KT M02/M02 A3033 RMK A01 T10161019  RH  098%=      5-min Rain = 0
KAI1 081713Z 02007KT M02/M02 A3033 RMK A01 T10161019  RH  098%=      5-min Rain = 0
KAI1 081714Z 02008KT M02/M02 A3033 RMK A01 T10161019  RH  098%=      5-min Rain = 0
KAI1 081715Z 01006KT M02/M02 A3033 RMK A01 T10161019  RH  098%=      5-min Rain = 0
KAI1 081716Z 01006KT M02/M02 A3033 RMK A01 T10161019  RH  098%=      5-min Rain = 0
KAI1 081717Z 02007KT M02/M02 A3033 RMK A01 T10161019  RH  098%=      5-min Rain = 0
KAI1 081718Z 02006KT M02/M02 A3033 RMK A01 T10161019  RH  098%=      5-min Rain = 0
KAI1 081719Z 01007KT M02/M02 A3033 RMK A01 T10161019  RH  098%=      5-min Rain = 0
KAI1 081720Z 01006KT M02/M02 A3033 RMK A01 T10161019  RH  098%=      5-min Rain = 0
KAI1 081721Z 01006KT M02/M02 A3033 RMK A01 T10151018  RH  098%=      5-min Rain = 0
KAI1 081722Z 01006KT M02/M02 A3033 RMK A01 T10151018  RH  098%=      5-min Rain = 0
KAI1 081723Z 01006KT M02/M02 A3033 RMK A01 T10151018  RH  098%=      5-min Rain = 0
KAI1 081724Z 01007KT M02/M02 A3033 RMK A01 T10151018  RH  098%=      5-min Rain = 0
KAI1 081725Z 01007KT M02/M02 A3033 RMK A01 T10151018  RH  098%=      5-min Rain = 0
KAI1 081726Z 01007KT M02/M02 A3033 RMK A01 T10151018  RH  098%=      5-min Rain = 0
KAI1 081727Z 01007KT M02/M02 A3033 RMK A01 T10151018  RH  098%=      5-min Rain = 0
KAI1 081728Z 01008KT M02/M02 A3033 RMK A01 T10151018  RH  098%=      5-min Rain = 0
KAI1 081729Z 01007KT M02/M02 A3033 RMK A01 T10151018  RH  098%=      5-min Rain = 0
KAI1 081730Z 01007KT M02/M02 A3033 RMK A01 T10151018  RH  098%=      5-min Rain = 0
KAI1 081731Z 01007KT M02/M02 A3033 RMK A01 T10151018  RH  098%=      5-min Rain = 0
KAI1 081732Z 00006KT M02/M02 A3033 RMK A01 T10151018  RH  098%=      5-min Rain = 0
KAI1 081733Z 00007KT M02/M02 A3032 RMK A01 T10151018  RH  098%=      5-min Rain = 0
KAI1 081734Z 01006KT M02/M02 A3032 RMK A01 T10151018  RH  098%=      5-min Rain = 0
KAI1 081735Z 01007KT M02/M02 A3032 RMK A01 T10151018  RH  098%=      5-min Rain = 0
KAI1 081736Z 01006KT M02/M02 A3032 RMK A01 T10151018  RH  098%=      5-min Rain = 0
KAI1 081737Z 02006KT M02/M02 A3032 RMK A01 T10151018  RH  098%=      5-min Rain = 0
KAI1 081738Z 02007KT M02/M02 A3032 RMK A01 T10151018  RH  098%=      5-min Rain = 0
KAI1 081739Z 01006KT M02/M02 A3032 RMK A01 T10151019  RH  098%=      5-min Rain = 0
KAI1 081740Z 02005KT M02/M02 A3032 RMK A01 T10151018  RH  098%=      5-min Rain = 0
KAI1 081741Z 02006KT M02/M02 A3032 RMK A01 T10151019  RH  098%=      5-min Rain = 0
KAI1 081742Z 02005KT M02/M02 A3032 RMK A01 T10151018  RH  098%=      5-min Rain = 0
KAI1 081743Z 01005KT M02/M02 A3032 RMK A01 T10151018  RH  098%=      5-min Rain = 0
KAI1 081744Z 01005KT M02/M02 A3032 RMK A01 T10151018  RH  098%=      5-min Rain = 0
KAI1 081745Z 01006KT M01/M02 A3032 RMK A01 T10141018  RH  098%=      5-min Rain = 0
KAI1 081746Z 01006KT M01/M02 A3032 RMK A01 T10141018  RH  098%=      5-min Rain = 0
KAI1 081747Z 01006KT M01/M02 A3032 RMK A01 T10141017  RH  098%=      5-min Rain = 0
KAI1 081748Z 01006KT M01/M02 A3032 RMK A01 T10141018  RH  098%=      5-min Rain = 0
KAI1 081749Z 01007KT M01/M02 A3032 RMK A01 T10141018  RH  098%=      5-min Rain = 0
KAI1 081750Z 01007KT M01/M02 A3032 RMK A01 T10141017  RH  098%=      5-min Rain = 0
KAI1 081751Z 01006KT M01/M02 A3032 RMK A01 T10141018  RH  098%=      5-min Rain = 0
KAI1 081752Z 00007KT M01/M02 A3032 RMK A01 T10141018  RH  098%=      5-min Rain = 0
KAI1 081753Z 00006KT M01/M02 A3032 RMK A01 T10141018  RH  098%=      5-min Rain = 0
KAI1 081754Z 00007KT M01/M02 A3032 RMK A01 T10141017  RH  098%=      5-min Rain = 0
KAI1 081755Z 01007KT M01/M02 A3032 RMK A01 T10141017  RH  098%=      5-min Rain = 0
KAI1 081756Z 01007KT M01/M02 A3032 RMK A01 T10141018  RH  098%=      5-min Rain = 0
KAI1 081757Z 00007KT M01/M02 A3032 RMK A01 T10141018  RH  098%=      5-min Rain = 0
KAI1 081758Z 36008KT M02/M02 A3032 RMK A01 T10151018  RH  097%=      5-min Rain = 0
KAI1 081759Z 00007KT M02/M02 A3032 RMK A01 T10151019  RH  098%=      5-min Rain = 0
KAI1 081800Z 36007KT M02/M02 A3032 RMK A01 T10151019  RH  097%=      5-min Rain = 0
KAI1 081801Z 00008KT M02/M02 A3032 RMK A01 T10151019  RH  097%=      5-min Rain = 0
KAI1 081802Z 36007KT M02/M02 A3032 RMK A01 T10151019  RH  097%=      5-min Rain = 0
KAI1 081803Z 00006KT M02/M02 A3032 RMK A01 T10151019  RH  097%=      5-min Rain = 0
KAI1 081804Z 35007KT M02/M02 A3032 RMK A01 T10151019  RH  097%=      5-min Rain = 0
KAI1 081805Z 00007KT M02/M02 A3032 RMK A01 T10151018  RH  097%=      5-min Rain = 0
KAI1 081806Z 00006KT M02/M02 A3032 RMK A01 T10151018  RH  097%=      5-min Rain = 0
KAI1 081807Z 01007KT M02/M02 A3032 RMK A01 T10151019  RH  097%=      5-min Rain = 0
KAI1 081808Z 01007KT M02/M02 A3032 RMK A01 T10151019  RH  097%=      5-min Rain = 0
KAI1 081809Z 01007KT M02/M02 A3031 RMK A01 T10151019  RH  097%=      5-min Rain = 0
KAI1 081810Z 01008KT M02/M02 A3031 RMK A01 T10151019  RH  097%=      5-min Rain = 0
KAI1 081811Z 00008KT M02/M02 A3031 RMK A01 T10151019  RH  097%=      5-min Rain = 0
KAI1 081812Z 00009KT M02/M02 A3031 RMK A01 T10151019  RH  097%=      5-min Rain = 0
KAI1 081813Z 36009KT M02/M02 A3031 RMK A01 T10151019  RH  097%=      5-min Rain = 0
KAI1 081814Z 00008KT M02/M02 A3031 RMK A01 T10161019  RH  097%=      5-min Rain = 0
KAI1 081815Z 00008KT M02/M02 A3031 RMK A01 T10161020  RH  097%=      5-min Rain = 0
KAI1 081816Z 00008KT M02/M02 A3031 RMK A01 T10151019  RH  097%=      5-min Rain = 0
KAI1 081817Z 01007KT M02/M02 A3031 RMK A01 T10161019  RH  097%=      5-min Rain = 0
KAI1 081818Z 01007KT M02/M02 A3031 RMK A01 T10151019  RH  097%=      5-min Rain = 0
KAI1 081819Z 00007KT M02/M02 A3031 RMK A01 T10161020  RH  097%=      5-min Rain = 0
KAI1 081820Z 00007KT M02/M02 A3031 RMK A01 T10161020  RH  097%=      5-min Rain = 0
KAI1 081821Z 01007KT M02/M02 A3031 RMK A01 T10151019  RH  097%=      5-min Rain = 0
KAI1 081822Z 00007KT M02/M02 A3031 RMK A01 T10151019  RH  097%=      5-min Rain = 0
KAI1 081823Z 01007KT M02/M02 A3031 RMK A01 T10151019  RH  097%=      5-min Rain = 0
KAI1 081824Z 00007KT M02/M02 A3031 RMK A01 T10151019  RH  097%=      5-min Rain = 0
KAI1 081825Z 36007KT M02/M02 A3031 RMK A01 T10151019  RH  097%=      5-min Rain = 0
KAI1 081826Z 35007KT M02/M02 A303 RMK A01 T10151019  RH  097%=      5-min Rain = 0
KAI1 081827Z 36006KT M02/M02 A303 RMK A01 T10151019  RH  097%=      5-min Rain = 0
KAI1 081828Z 00006KT M02/M02 A303 RMK A01 T10151019  RH  097%=      5-min Rain = 0
KAI1 081829Z 36007KT M02/M02 A303 RMK A01 T10151019  RH  097%=      5-min Rain = 0
KAI1 081830Z 35007KT M02/M02 A303 RMK A01 T10151019  RH  097%=      5-min Rain = 0
KAI1 081831Z 36007KT M02/M02 A303 RMK A01 T10151019  RH  097%=      5-min Rain = 0
KAI1 081832Z 36008KT M01/M02 A303 RMK A01 T10141018  RH  097%=      5-min Rain = 0
KAI1 081833Z 36008KT M02/M02 A303 RMK A01 T10151019  RH  097%=      5-min Rain = 0
KAI1 081834Z 36008KT M02/M02 A303 RMK A01 T10151020  RH  097%=      5-min Rain = 0
KAI1 081835Z 36008KT M02/M02 A303 RMK A01 T10161020  RH  097%=      5-min Rain = 0
KAI1 081836Z 00007KT M02/M02 A303 RMK A01 T10161021  RH  097%=      5-min Rain = 0
KAI1 081837Z 01007KT M02/M02 A303 RMK A01 T10171021  RH  097%=      5-min Rain = 0
KAI1 081838Z 36008KT M02/M02 A303 RMK A01 T10161020  RH  097%=      5-min Rain = 0
KAI1 081839Z 36008KT M02/M02 A303 RMK A01 T10161021  RH  097%=      5-min Rain = 0
KAI1 081840Z 00008KT M02/M02 A3029 RMK A01 T10171021  RH  097%=      5-min Rain = 0
KAI1 081841Z 36007KT M02/M02 A3029 RMK A01 T10161021  RH  097%=      5-min Rain = 0
KAI1 081842Z 36007KT M02/M02 A3029 RMK A01 T10161020  RH  097%=      5-min Rain = 0
KAI1 081843Z 00008KT M02/M02 A3029 RMK A01 T10161020  RH  097%=      5-min Rain = 0
KAI1 081844Z 01008KT M02/M02 A3029 RMK A01 T10161020  RH  097%=      5-min Rain = 0
KAI1 081845Z 01008KT M02/M02 A3029 RMK A01 T10171021  RH  097%=      5-min Rain = 0
KAI1 081846Z 36007KT M02/M02 A3029 RMK A01 T10171022  RH  097%=      5-min Rain = 0
KAI1 081847Z 01006KT M02/M02 A3029 RMK A01 T10171022  RH  097%=      5-min Rain = 0
KAI1 081848Z 00008KT M02/M02 A3029 RMK A01 T10171022  RH  097%=      5-min Rain = 0.01
KAI1 081849Z 00007KT M02/M02 A3029 RMK A01 T10171022  RH  097%=      5-min Rain = 0
KAI1 081850Z 00008KT M02/M02 A3029 RMK A01 T10171022  RH  097%=      5-min Rain = 0
KAI1 081851Z 00008KT M02/M02 A3029 RMK A01 T10171022  RH  097%=      5-min Rain = 0
KAI1 081852Z 35008KT M02/M02 A3028 RMK A01 T10181022  RH  097%=      5-min Rain = 0
KAI1 081853Z 36008KT M02/M02 A3028 RMK A01 T10171022  RH  097%=      5-min Rain = 0
KAI1 081854Z 35008KT M02/M02 A3028 RMK A01 T10171022  RH  097%=      5-min Rain = 0
KAI1 081855Z 35009KT M02/M02 A3028 RMK A01 T10171022  RH  097%=      5-min Rain = 0.01
KAI1 081856Z 36008KT M02/M02 A3028 RMK A01 T10171022  RH  097%=      5-min Rain = 0
KAI1 081857Z 00008KT M02/M02 A3028 RMK A01 T10171022  RH  097%=      5-min Rain = 0.01
KAI1 081858Z 01008KT M02/M02 A3028 RMK A01 T10171022  RH  097%=      5-min Rain = 0
KAI1 081859Z 00008KT M02/M02 A3028 RMK A01 T10171022  RH  097%=      5-min Rain = 0
KAI1 081900Z 00007KT M02/M02 A3028 RMK A01 T10171022  RH  097%=      5-min Rain = 0.01
KAI1 081901Z 36008KT M02/M02 A3028 RMK A01 T10171022  RH  097%=      5-min Rain = 0
KAI1 081902Z 36007KT M02/M02 A3028 RMK A01 T10171022  RH  097%=      5-min Rain = 0
KAI1 081903Z 36007KT M02/M02 A3028 RMK A01 T10171022  RH  097%=      5-min Rain = 0
KAI1 081904Z 36008KT M02/M02 A3028 RMK A01 T10171021  RH  097%=      5-min Rain = 0.01
KAI1 081905Z 00008KT M02/M02 A3028 RMK A01 T10161021  RH  097%=      5-min Rain = 0
KAI1 081906Z 00008KT M02/M02 A3028 RMK A01 T10171022  RH  097%=      5-min Rain = 0.01
KAI1 081907Z 00008KT M02/M02 A3028 RMK A01 T10171022  RH  097%=      5-min Rain = 0
KAI1 081908Z 00009KT M02/M02 A3028 RMK A01 T10171022  RH  097%=      5-min Rain = 0
KAI1 081909Z 00008KT M02/M02 A3028 RMK A01 T10171021  RH  097%=      5-min Rain = 0
KAI1 081910Z 01008KT M02/M02 A3027 RMK A01 T10161021  RH  097%=      5-min Rain = 0.01
KAI1 081911Z 01008KT M02/M02 A3027 RMK A01 T10161021  RH  097%=      5-min Rain = 0
KAI1 081912Z 00009KT M02/M02 A3027 RMK A01 T10171021  RH  097%=      5-min Rain = 0.01
KAI1 081913Z 36008KT M02/M02 A3027 RMK A01 T10161021  RH  097%=      5-min Rain = 0
KAI1 081914Z 36008KT M02/M02 A3027 RMK A01 T10171022  RH  096%=      5-min Rain = 0
KAI1 081915Z 36008KT M02/M02 A3027 RMK A01 T10171022  RH  096%=      5-min Rain = 0
KAI1 081916Z 36008KT M02/M02 A3027 RMK A01 T10171022  RH  097%=      5-min Rain = 0.01
KAI1 081917Z 36008KT M02/M02 A3027 RMK A01 T10171022  RH  096%=      5-min Rain = 0
KAI1 081918Z 00008KT M02/M02 A3027 RMK A01 T10171022  RH  096%=      5-min Rain = 0.01
KAI1 081919Z 36008KT M02/M02 A3027 RMK A01 T10171022  RH  096%=      5-min Rain = 0
KAI1 081920Z 35008KT M02/M02 A3027 RMK A01 T10171022  RH  096%=      5-min Rain = 0
KAI1 081921Z 36008KT M02/M02 A3027 RMK A01 T10171022  RH  096%=      5-min Rain = 0.01
KAI1 081922Z 00008KT M02/M02 A3027 RMK A01 T10171023  RH  096%=      5-min Rain = 0
KAI1 081923Z 00007KT M02/M02 A3027 RMK A01 T10171023  RH  096%=      5-min Rain = 0
KAI1 081924Z 36007KT M02/M02 A3027 RMK A01 T10181023  RH  096%=      5-min Rain = 0
KAI1 081925Z 35007KT M02/M02 A3027 RMK A01 T10171022  RH  096%=      5-min Rain = 0.01
KAI1 081926Z 36007KT M02/M02 A3027 RMK A01 T10171022  RH  096%=      5-min Rain = 0
KAI1 081927Z 35008KT M02/M02 A3027 RMK A01 T10171022  RH  096%=      5-min Rain = 0
KAI1 081928Z 35009KT M02/M02 A3027 RMK A01 T10161021  RH  096%=      5-min Rain = 0.01
KAI1 081929Z 35008KT M02/M02 A3027 RMK A01 T10161021  RH  097%=      5-min Rain = 0
KAI1 081930Z 35008KT M02/M02 A3027 RMK A01 T10171021  RH  096%=      5-min Rain = 0
KAI1 081931Z 35007KT M02/M02 A3027 RMK A01 T10161021  RH  097%=      5-min Rain = 0.01
KAI1 081932Z 36008KT M02/M02 A3027 RMK A01 T10161021  RH  097%=      5-min Rain = 0
KAI1 081933Z 36007KT M02/M02 A3027 RMK A01 T10161021  RH  097%=      5-min Rain = 0
KAI1 081934Z 35006KT M02/M02 A3027 RMK A01 T10161021  RH  097%=      5-min Rain = 0.01
KAI1 081935Z 00007KT M02/M02 A3027 RMK A01 T10161021  RH  097%=      5-min Rain = 0
KAI1 081936Z 36006KT M02/M02 A3027 RMK A01 T10161020  RH  097%=      5-min Rain = 0
KAI1 081937Z 36006KT M02/M02 A3027 RMK A01 T10161020  RH  097%=      5-min Rain = 0
KAI1 081938Z 36006KT M02/M02 A3027 RMK A01 T10161020  RH  097%=      5-min Rain = 0
KAI1 081939Z 00005KT M02/M02 A3027 RMK A01 T10151020  RH  097%=      5-min Rain = 0.01
KAI1 081940Z 35006KT M02/M02 A3027 RMK A01 T10151019  RH  097%=      5-min Rain = 0
KAI1 081941Z 35006KT M01/M02 A3027 RMK A01 T10141019  RH  097%=      5-min Rain = 0
KAI1 081942Z 35007KT M01/M02 A3027 RMK A01 T10141018  RH  097%=      5-min Rain = 0
KAI1 081943Z 36006KT M01/M02 A3027 RMK A01 T10141018  RH  097%=      5-min Rain = 0
KAI1 081944Z 00007KT M01/M02 A3027 RMK A01 T10141019  RH  097%=      5-min Rain = 0.01
KAI1 081945Z 01007KT M01/M02 A3027 RMK A01 T10141019  RH  097%=      5-min Rain = 0
KAI1 081946Z 00007KT M02/M02 A3027 RMK A01 T10151019  RH  097%=      5-min Rain = 0
KAI1 081947Z 36007KT M02/M02 A3027 RMK A01 T10151019  RH  097%=      5-min Rain = 0.01
KAI1 081948Z 36007KT M02/M02 A3027 RMK A01 T10151019  RH  097%=      5-min Rain = 0
KAI1 081949Z 35007KT M02/M02 A3027 RMK A01 T10151019  RH  097%=      5-min Rain = 0
KAI1 081950Z 34007KT M02/M02 A3027 RMK A01 T10151019  RH  097%=      5-min Rain = 0
KAI1 081951Z 34007KT M01/M02 A3027 RMK A01 T10141019  RH  097%=      5-min Rain = 0
KAI1 081952Z 35008KT M02/M02 A3027 RMK A01 T10151019  RH  097%=      5-min Rain = 0.01
KAI1 081953Z 35008KT M01/M02 A3027 RMK A01 T10141019  RH  097%=      5-min Rain = 0
KAI1 081954Z 34007KT M02/M02 A3027 RMK A01 T10151019  RH  097%=      5-min Rain = 0
KAI1 081955Z 35007KT M02/M02 A3027 RMK A01 T10151020  RH  097%=      5-min Rain = 0
KAI1 081956Z 35007KT M02/M02 A3027 RMK A01 T10151020  RH  097%=      5-min Rain = 0
KAI1 081957Z 36007KT M02/M02 A3027 RMK A01 T10151020  RH  097%=      5-min Rain = 0
KAI1 081958Z 35007KT M02/M02 A3027 RMK A01 T10151020  RH  097%=      5-min Rain = 0.01
KAI1 081959Z 36007KT M02/M02 A3027 RMK A01 T10151019  RH  097%=      5-min Rain = 0
KAI1 082000Z 36006KT M02/M02 A3027 RMK A01 T10151019  RH  097%=      5-min Rain = 0
KAI1 082001Z 36006KT M02/M02 A3027 RMK A01 T10151019  RH  097%=      5-min Rain = 0
KAI1 082002Z 36006KT M01/M02 A3027 RMK A01 T10141019  RH  097%=      5-min Rain = 0
KAI1 082003Z 34006KT M01/M02 A3026 RMK A01 T10141018  RH  097%=      5-min Rain = 0.01
KAI1 082004Z 34007KT M01/M02 A3026 RMK A01 T10141018  RH  097%=      5-min Rain = 0
KAI1 082005Z 34007KT M01/M02 A3026 RMK A01 T10141018  RH  097%=      5-min Rain = 0
KAI1 082006Z 34007KT M01/M02 A3026 RMK A01 T10141018  RH  097%=      5-min Rain = 0
KAI1 082007Z 34007KT M01/M02 A3026 RMK A01 T10141018  RH  097%=      5-min Rain = 0
KAI1 082008Z 34006KT M01/M02 A3026 RMK A01 T10131018  RH  097%=      5-min Rain = 0.01
KAI1 082009Z 35006KT M01/M02 A3026 RMK A01 T10131017  RH  097%=      5-min Rain = 0
KAI1 082010Z 35007KT M01/M02 A3026 RMK A01 T10131017  RH  097%=      5-min Rain = 0
KAI1 082011Z 35006KT M01/M02 A3026 RMK A01 T10131017  RH  097%=      5-min Rain = 0
KAI1 082012Z 34006KT M01/M02 A3026 RMK A01 T10131017  RH  097%=      5-min Rain = 0
KAI1 082013Z 34007KT M01/M02 A3026 RMK A01 T10121017  RH  097%=      5-min Rain = 0.01
KAI1 082014Z 34006KT M01/M02 A3026 RMK A01 T10131017  RH  097%=      5-min Rain = 0
KAI1 082015Z 35006KT M01/M02 A3026 RMK A01 T10121017  RH  097%=      5-min Rain = 0
KAI1 082016Z 34006KT M01/M02 A3026 RMK A01 T10121017  RH  097%=      5-min Rain = 0
KAI1 082017Z 35006KT M01/M02 A3026 RMK A01 T10121016  RH  097%=      5-min Rain = 0
KAI1 082018Z 34006KT M01/M02 A3026 RMK A01 T10121016  RH  097%=      5-min Rain = 0
KAI1 082019Z 34006KT M01/M02 A3026 RMK A01 T10121016  RH  097%=      5-min Rain = 0.01
KAI1 082020Z 34005KT M01/M02 A3026 RMK A01 T10121016  RH  097%=      5-min Rain = 0
KAI1 082021Z 34006KT M01/M02 A3026 RMK A01 T10121016  RH  097%=      5-min Rain = 0
KAI1 082022Z 34007KT M01/M02 A3026 RMK A01 T10121016  RH  097%=      5-min Rain = 0
KAI1 082023Z 34006KT M01/M02 A3026 RMK A01 T10121016  RH  097%=      5-min Rain = 0
KAI1 082024Z 34006KT M01/M02 A3026 RMK A01 T10121016  RH  097%=      5-min Rain = 0
KAI1 082025Z 34007KT M01/M02 A3026 RMK A01 T10121016  RH  097%=      5-min Rain = 0.01
KAI1 082026Z 34007KT M01/M02 A3026 RMK A01 T10121016  RH  097%=      5-min Rain = 0
KAI1 082027Z 34006KT M01/M02 A3026 RMK A01 T10121016  RH  097%=      5-min Rain = 0
KAI1 082028Z 34007KT M01/M02 A3026 RMK A01 T10121016  RH  097%=      5-min Rain = 0
KAI1 082029Z 34006KT M01/M02 A3026 RMK A01 T10131016  RH  097%=      5-min Rain = 0
KAI1 082030Z 34006KT M01/M02 A3026 RMK A01 T10121016  RH  097%=      5-min Rain = 0
KAI1 082031Z 34007KT M01/M02 A3026 RMK A01 T10121016  RH  097%=      5-min Rain = 0
KAI1 082032Z 34007KT M01/M02 A3026 RMK A01 T10131016  RH  097%=      5-min Rain = 0.01
KAI1 082033Z 34006KT M01/M02 A3026 RMK A01 T10121016  RH  097%=      5-min Rain = 0
KAI1 082034Z 34006KT M01/M02 A3026 RMK A01 T10121016  RH  097%=      5-min Rain = 0
KAI1 082035Z 34006KT M01/M02 A3026 RMK A01 T10121016  RH  097%=      5-min Rain = 0
KAI1 082036Z 34006KT M01/M02 A3026 RMK A01 T10111015  RH  097%=      5-min Rain = 0
KAI1 082037Z 34006KT M01/M02 A3026 RMK A01 T10121016  RH  097%=      5-min Rain = 0
KAI1 082038Z 34007KT M01/M02 A3025 RMK A01 T10111015  RH  097%=      5-min Rain = 0.01
KAI1 082039Z 34006KT M01/M02 A3025 RMK A01 T10121016  RH  097%=      5-min Rain = 0
KAI1 082040Z 34005KT M01/M02 A3025 RMK A01 T10111015  RH  097%=      5-min Rain = 0
KAI1 082041Z 34005KT M01/M02 A3025 RMK A01 T10111015  RH  097%=      5-min Rain = 0
KAI1 082042Z 34005KT M01/M02 A3025 RMK A01 T10111015  RH  097%=      5-min Rain = 0
KAI1 082043Z 34006KT M01/M02 A3025 RMK A01 T10111015  RH  097%=      5-min Rain = 0
KAI1 082044Z 34006KT M01/M01 A3025 RMK A01 T10101014  RH  097%=      5-min Rain = 0.01
KAI1 082045Z 34006KT M01/M01 A3025 RMK A01 T10101014  RH  097%=      5-min Rain = 0
KAI1 082046Z 34007KT M01/M01 A3025 RMK A01 T10101014  RH  097%=      5-min Rain = 0
KAI1 082047Z 34006KT M01/M01 A3025 RMK A01 T10101014  RH  097%=      5-min Rain = 0
KAI1 082048Z 34006KT M01/M01 A3025 RMK A01 T10101014  RH  097%=      5-min Rain = 0
KAI1 082049Z 35006KT M01/M01 A3025 RMK A01 T10101014  RH  097%=      5-min Rain = 0
KAI1 082050Z 35006KT M01/M01 A3025 RMK A01 T10101014  RH  097%=      5-min Rain = 0.01
KAI1 082051Z 35005KT M01/M01 A3025 RMK A01 T10101014  RH  097%=      5-min Rain = 0
KAI1 082052Z 35006KT M01/M01 A3025 RMK A01 T10101014  RH  097%=      5-min Rain = 0
KAI1 082053Z 35006KT M01/M01 A3025 RMK A01 T10101014  RH  097%=      5-min Rain = 0
KAI1 082054Z 36006KT M01/M01 A3025 RMK A01 T10101014  RH  097%=      5-min Rain = 0
KAI1 082055Z 35005KT M01/M01 A3025 RMK A01 T10101014  RH  097%=      5-min Rain = 0
KAI1 082056Z 34004KT M01/M01 A3025 RMK A01 T10101014  RH  097%=      5-min Rain = 0.01
KAI1 082057Z 34005KT M01/M01 A3025 RMK A01 T10091013  RH  097%=      5-min Rain = 0
KAI1 082058Z 34005KT M01/M01 A3025 RMK A01 T10101014  RH  097%=      5-min Rain = 0
KAI1 082059Z 34005KT M01/M01 A3025 RMK A01 T10091013  RH  097%=      5-min Rain = 0
KAI1 082100Z 34005KT M01/M01 A3025 RMK A01 T10091013  RH  097%=      5-min Rain = 0
KAI1 082101Z 35005KT M01/M01 A3025 RMK A01 T10091013  RH  097%=      5-min Rain = 0
KAI1 082102Z 34005KT M01/M01 A3025 RMK A01 T10091013  RH  097%=      5-min Rain = 0.01
KAI1 082103Z 34005KT M01/M01 A3025 RMK A01 T10091013  RH  097%=      5-min Rain = 0
KAI1 082104Z 34004KT M01/M01 A3025 RMK A01 T10081013  RH  097%=      5-min Rain = 0
KAI1 082105Z 34004KT M01/M01 A3025 RMK A01 T10091013  RH  097%=      5-min Rain = 0
KAI1 082106Z 34004KT M01/M01 A3025 RMK A01 T10091013  RH  097%=      5-min Rain = 0
KAI1 082107Z 33005KT M01/M01 A3025 RMK A01 T10081013  RH  097%=      5-min Rain = 0.01
KAI1 082108Z 34005KT M01/M01 A3025 RMK A01 T10081012  RH  097%=      5-min Rain = 0
KAI1 082109Z 35005KT M01/M01 A3025 RMK A01 T10081012  RH  097%=      5-min Rain = 0
KAI1 082110Z 35006KT M01/M01 A3025 RMK A01 T10081012  RH  097%=      5-min Rain = 0
KAI1 082111Z 35006KT M01/M01 A3025 RMK A01 T10081012  RH  097%=      5-min Rain = 0
KAI1 082112Z 35006KT M01/M01 A3025 RMK A01 T10071012  RH  097%=      5-min Rain = 0
KAI1 082113Z 35005KT M01/M01 A3025 RMK A01 T10071012  RH  097%=      5-min Rain = 0
KAI1 082114Z 36005KT M01/M01 A3025 RMK A01 T10081012  RH  097%=      5-min Rain = 0.01
KAI1 082115Z 35005KT M01/M01 A3025 RMK A01 T10081012  RH  097%=      5-min Rain = 0
KAI1 082116Z 35005KT M01/M01 A3025 RMK A01 T10081012  RH  097%=      5-min Rain = 0
KAI1 082117Z 36005KT M01/M01 A3025 RMK A01 T10081012  RH  097%=      5-min Rain = 0
KAI1 082118Z 36005KT M01/M01 A3025 RMK A01 T10081012  RH  097%=      5-min Rain = 0
KAI1 082119Z 00005KT M01/M01 A3025 RMK A01 T10081012  RH  097%=      5-min Rain = 0
KAI1 082120Z 35005KT M01/M01 A3025 RMK A01 T10071012  RH  097%=      5-min Rain = 0
KAI1 082121Z 01005KT M01/M01 A3025 RMK A01 T10071012  RH  097%=      5-min Rain = 0.01
KAI1 082122Z 35004KT M01/M01 A3024 RMK A01 T10071011  RH  097%=      5-min Rain = 0
KAI1 082123Z 36004KT M01/M01 A3024 RMK A01 T10071011  RH  097%=      5-min Rain = 0
KAI1 082124Z 00004KT M01/M01 A3024 RMK A01 T10071011  RH  097%=      5-min Rain = 0
KAI1 082125Z 00004KT M01/M01 A3024 RMK A01 T10071011  RH  097%=      5-min Rain = 0
KAI1 082126Z 01004KT M01/M01 A3024 RMK A01 T10071011  RH  097%=      5-min Rain = 0
KAI1 082127Z 01004KT M01/M01 A3024 RMK A01 T10071011  RH  097%=      5-min Rain = 0
KAI1 082128Z 01004KT M01/M01 A3024 RMK A01 T10071011  RH  097%=      5-min Rain = 0.01
KAI1 082129Z 02003KT M01/M01 A3024 RMK A01 T10071011  RH  097%=      5-min Rain = 0
KAI1 082130Z 02004KT M01/M01 A3024 RMK A01 T10071011  RH  097%=      5-min Rain = 0
KAI1 082131Z 01003KT M01/M01 A3024 RMK A01 T10071011  RH  097%=      5-min Rain = 0
KAI1 082132Z 36003KT M01/M01 A3024 RMK A01 T10061010  RH  097%=      5-min Rain = 0
KAI1 082133Z 35004KT M01/M01 A3024 RMK A01 T10061010  RH  097%=      5-min Rain = 0
KAI1 082134Z 35004KT M01/M01 A3024 RMK A01 T10061010  RH  097%=      5-min Rain = 0
KAI1 082135Z 35004KT M01/M01 A3024 RMK A01 T10061010  RH  097%=      5-min Rain = 0
KAI1 082136Z 35004KT M01/M01 A3025 RMK A01 T10061010  RH  097%=      5-min Rain = 0
KAI1 082137Z 35005KT M01/M01 A3025 RMK A01 T10061011  RH  097%=      5-min Rain = 0.01
KAI1 082138Z 35005KT M01/M01 A3025 RMK A01 T10061010  RH  097%=      5-min Rain = 0
KAI1 082139Z 35004KT M01/M01 A3025 RMK A01 T10061010  RH  097%=      5-min Rain = 0
KAI1 082140Z 35005KT M01/M01 A3025 RMK A01 T10061010  RH  097%=      5-min Rain = 0
KAI1 082141Z 35005KT M01/M01 A3025 RMK A01 T10061010  RH  097%=      5-min Rain = 0
KAI1 082142Z 36004KT M01/M01 A3025 RMK A01 T10061011  RH  097%=      5-min Rain = 0
KAI1 082143Z 36004KT M01/M01 A3025 RMK A01 T10071011  RH  097%=      5-min Rain = 0
KAI1 082144Z 35004KT M01/M01 A3025 RMK A01 T10061011  RH  097%=      5-min Rain = 0
KAI1 082145Z 35004KT M01/M01 A3025 RMK A01 T10071011  RH  097%=      5-min Rain = 0
KAI1 082146Z 35004KT M01/M01 A3025 RMK A01 T10071011  RH  097%=      5-min Rain = 0.01
KAI1 082147Z 36004KT M01/M01 A3024 RMK A01 T10071011  RH  097%=      5-min Rain = 0
KAI1 082148Z 00004KT M01/M01 A3024 RMK A01 T10071011  RH  097%=      5-min Rain = 0
KAI1 082149Z 35004KT M01/M01 A3024 RMK A01 T10071011  RH  097%=      5-min Rain = 0
KAI1 082150Z 36003KT M01/M01 A3024 RMK A01 T10071011  RH  097%=      5-min Rain = 0
KAI1 082151Z 36003KT M01/M01 A3024 RMK A01 T10071011  RH  097%=      5-min Rain = 0
KAI1 082152Z 00003KT M01/M01 A3024 RMK A01 T10071011  RH  097%=      5-min Rain = 0
KAI1 082153Z 35003KT M01/M01 A3024 RMK A01 T10071011  RH  097%=      5-min Rain = 0
KAI1 082154Z 36003KT M01/M01 A3024 RMK A01 T10071011  RH  097%=      5-min Rain = 0
KAI1 082155Z 36004KT M01/M01 A3024 RMK A01 T10061011  RH  097%=      5-min Rain = 0
KAI1 082156Z 36003KT M01/M01 A3024 RMK A01 T10061011  RH  097%=      5-min Rain = 0
KAI1 082157Z 01003KT M01/M01 A3024 RMK A01 T10061011  RH  097%=      5-min Rain = 0
KAI1 082158Z 01003KT M01/M01 A3024 RMK A01 T10061010  RH  097%=      5-min Rain = 0
KAI1 082159Z 00003KT M01/M01 A3025 RMK A01 T10051010  RH  097%=      5-min Rain = 0.01
KAI1 082200Z 36003KT M01/M01 A3025 RMK A01 T10051010  RH  097%=      5-min Rain = 0
KAI1 082201Z 36003KT M01/M01 A3025 RMK A01 T10051009  RH  097%=      5-min Rain = 0
KAI1 082202Z 36003KT M01/M01 A3025 RMK A01 T10051009  RH  097%=      5-min Rain = 0
KAI1 082203Z 35003KT M01/M01 A3025 RMK A01 T10051009  RH  097%=      5-min Rain = 0
KAI1 082204Z 34003KT M00/M01 A3025 RMK A01 T10041009  RH  097%=      5-min Rain = 0
KAI1 082205Z 35004KT M00/M01 A3025 RMK A01 T10041009  RH  097%=      5-min Rain = 0
KAI1 082206Z 34004KT M00/M01 A3025 RMK A01 T10041008  RH  097%=      5-min Rain = 0
KAI1 082207Z 34004KT M00/M01 A3025 RMK A01 T10031008  RH  097%=      5-min Rain = 0
KAI1 082208Z 34004KT M00/M01 A3025 RMK A01 T10041008  RH  097%=      5-min Rain = 0
KAI1 082209Z 35004KT M00/M01 A3025 RMK A01 T10041008  RH  097%=      5-min Rain = 0
KAI1 082210Z 35004KT M00/M01 A3024 RMK A01 T10041008  RH  097%=      5-min Rain = 0.01
KAI1 082211Z 34004KT M00/M01 A3024 RMK A01 T10041008  RH  097%=      5-min Rain = 0
KAI1 082212Z 35004KT M00/M01 A3024 RMK A01 T10031008  RH  097%=      5-min Rain = 0
KAI1 082213Z 35003KT M00/M01 A3024 RMK A01 T10031008  RH  097%=      5-min Rain = 0
KAI1 082214Z 35004KT M00/M01 A3024 RMK A01 T10031008  RH  097%=      5-min Rain = 0
KAI1 082215Z 35003KT M00/M01 A3024 RMK A01 T10031008  RH  097%=      5-min Rain = 0
KAI1 082216Z 36003KT M00/M01 A3024 RMK A01 T10031008  RH  097%=      5-min Rain = 0
KAI1 082217Z 00003KT M00/M01 A3024 RMK A01 T10031008  RH  097%=      5-min Rain = 0
KAI1 082218Z 01004KT M00/M01 A3024 RMK A01 T10031007  RH  097%=      5-min Rain = 0
KAI1 082219Z 36003KT M00/M01 A3025 RMK A01 T10031007  RH  097%=      5-min Rain = 0
KAI1 082220Z 36003KT M00/M01 A3025 RMK A01 T10031007  RH  097%=      5-min Rain = 0
KAI1 082221Z 36003KT M00/M01 A3025 RMK A01 T10031007  RH  097%=      5-min Rain = 0.01
KAI1 082222Z 00004KT M00/M01 A3025 RMK A01 T10031007  RH  097%=      5-min Rain = 0
KAI1 082223Z 35003KT M00/M01 A3025 RMK A01 T10031007  RH  097%=      5-min Rain = 0
KAI1 082224Z 00003KT M00/M01 A3025 RMK A01 T10031007  RH  097%=      5-min Rain = 0
KAI1 082225Z 02004KT M00/M01 A3025 RMK A01 T10031007  RH  097%=      5-min Rain = 0
KAI1 082226Z 01004KT M00/M01 A3025 RMK A01 T10031007  RH  097%=      5-min Rain = 0
KAI1 082227Z 02004KT M00/M01 A3025 RMK A01 T10041007  RH  097%=      5-min Rain = 0
KAI1 082228Z 01004KT M01/M01 A3025 RMK A01 T10051008  RH  098%=      5-min Rain = 0
KAI1 082229Z 02005KT M01/M01 A3025 RMK A01 T10051009  RH  098%=      5-min Rain = 0
KAI1 082230Z 02004KT M01/M01 A3025 RMK A01 T10061009  RH  098%=      5-min Rain = 0
KAI1 082231Z 02004KT M01/M01 A3025 RMK A01 T10061009  RH  098%=      5-min Rain = 0
KAI1 082232Z 02004KT M01/M01 A3025 RMK A01 T10061010  RH  097%=      5-min Rain = 0
KAI1 082233Z 02004KT M01/M01 A3025 RMK A01 T10071011  RH  097%=      5-min Rain = 0
KAI1 082234Z 01004KT M01/M01 A3025 RMK A01 T10071011  RH  098%=      5-min Rain = 0
KAI1 082235Z 01004KT M01/M01 A3025 RMK A01 T10081011  RH  098%=      5-min Rain = 0
KAI1 082236Z 01003KT M01/M01 A3025 RMK A01 T10091012  RH  098%=      5-min Rain = 0
KAI1 082237Z 01004KT M01/M01 A3025 RMK A01 T10091013  RH  098%=      5-min Rain = 0
KAI1 082238Z 02004KT M01/M01 A3025 RMK A01 T10091013  RH  098%=      5-min Rain = 0
KAI1 082239Z 02004KT M01/M01 A3024 RMK A01 T10101014  RH  098%=      5-min Rain = 0
KAI1 082240Z 02004KT M01/M01 A3024 RMK A01 T10111014  RH  098%=      5-min Rain = 0
KAI1 082241Z 02004KT M01/M01 A3025 RMK A01 T10111014  RH  098%=      5-min Rain = 0
KAI1 082242Z 01004KT M01/M01 A3025 RMK A01 T10111014  RH  098%=      5-min Rain = 0
KAI1 082243Z 02004KT M01/M02 A3025 RMK A01 T10121015  RH  098%=      5-min Rain = 0
KAI1 082244Z 01004KT M01/M02 A3025 RMK A01 T10121015  RH  098%=      5-min Rain = 0
KAI1 082245Z 01004KT M01/M02 A3025 RMK A01 T10121015  RH  098%=      5-min Rain = 0
KAI1 082246Z 01004KT M01/M02 A3025 RMK A01 T10121015  RH  098%=      5-min Rain = 0
KAI1 082247Z 01004KT M01/M02 A3025 RMK A01 T10121015  RH  098%=      5-min Rain = 0
KAI1 082248Z 01004KT M01/M02 A3025 RMK A01 T10131016  RH  098%=      5-min Rain = 0
KAI1 082249Z 01003KT M01/M02 A3025 RMK A01 T10131016  RH  098%=      5-min Rain = 0
KAI1 082250Z 01003KT M01/M02 A3025 RMK A01 T10131016  RH  098%=      5-min Rain = 0
KAI1 082251Z 01003KT M01/M02 A3025 RMK A01 T10131016  RH  098%=      5-min Rain = 0
KAI1 082252Z 01003KT M01/M02 A3025 RMK A01 T10131017  RH  098%=      5-min Rain = 0
KAI1 082253Z 00003KT M01/M02 A3025 RMK A01 T10131017  RH  098%=      5-min Rain = 0
KAI1 082254Z 00003KT M01/M02 A3025 RMK A01 T10131017  RH  098%=      5-min Rain = 0
KAI1 082255Z 00003KT M01/M02 A3025 RMK A01 T10131017  RH  098%=      5-min Rain = 0
KAI1 082256Z 00003KT M01/M02 A3025 RMK A01 T10131017  RH  097%=      5-min Rain = 0
KAI1 082257Z 00003KT M01/M02 A3025 RMK A01 T10141017  RH  097%=      5-min Rain = 0
KAI1 082258Z 00003KT M01/M02 A3025 RMK A01 T10141018  RH  097%=      5-min Rain = 0
KAI1 082259Z 00003KT M01/M02 A3025 RMK A01 T10141018  RH  097%=      5-min Rain = 0
KAI1 082300Z 00003KT M02/M02 A3025 RMK A01 T10151020  RH  097%=      5-min Rain = 0
KAI1 082301Z 00003KT M02/M02 A3025 RMK A01 T10161020  RH  097%=      5-min Rain = 0
KAI1 082302Z 00003KT M02/M02 A3025 RMK A01 T10161020  RH  097%=      5-min Rain = 0
KAI1 082303Z 00003KT M02/M02 A3025 RMK A01 T10171021  RH  097%=      5-min Rain = 0
KAI1 082304Z 00003KT M02/M02 A3025 RMK A01 T10161021  RH  097%=      5-min Rain = 0
KAI1 082305Z 00003KT M02/M02 A3025 RMK A01 T10161020  RH  097%=      5-min Rain = 0
KAI1 082306Z 00003KT M02/M02 A3025 RMK A01 T10161020  RH  097%=      5-min Rain = 0
KAI1 082307Z 00002KT M02/M02 A3025 RMK A01 T10161020  RH  097%=      5-min Rain = 0
KAI1 082308Z 00002KT M02/M02 A3025 RMK A01 T10161019  RH  097%=      5-min Rain = 0
KAI1 082309Z 00002KT M02/M02 A3025 RMK A01 T10161019  RH  097%=      5-min Rain = 0
KAI1 082310Z 00002KT M02/M02 A3025 RMK A01 T10161019  RH  097%=      5-min Rain = 0
KAI1 082311Z 35002KT M02/M02 A3025 RMK A01 T10161019  RH  097%=      5-min Rain = 0
KAI1 082312Z 34002KT M02/M02 A3025 RMK A01 T10161019  RH  097%=      5-min Rain = 0
KAI1 082313Z 33002KT M02/M02 A3025 RMK A01 T10161019  RH  097%=      5-min Rain = 0
KAI1 082314Z 33001KT M02/M02 A3025 RMK A01 T10161019  RH  097%=      5-min Rain = 0
KAI1 082315Z 33001KT M02/M02 A3025 RMK A01 T10161019  RH  097%=      5-min Rain = 0
KAI1 082316Z 32001KT M02/M02 A3025 RMK A01 T10151019  RH  098%=      5-min Rain = 0
KAI1 082317Z 32001KT M02/M02 A3025 RMK A01 T10151019  RH  098%=      5-min Rain = 0
KAI1 082318Z 32001KT M02/M02 A3025 RMK A01 T10151018  RH  098%=      5-min Rain = 0
KAI1 082319Z 32001KT M02/M02 A3025 RMK A01 T10151018  RH  098%=      5-min Rain = 0
KAI1 082320Z 32000KT M01/M02 A3025 RMK A01 T10141018  RH  098%=      5-min Rain = 0
KAI1 082321Z 32000KT M02/M02 A3025 RMK A01 T10151018  RH  098%=      5-min Rain = 0
KAI1 082322Z 00000KT M01/M02 A3025 RMK A01 T10141017  RH  098%=      5-min Rain = 0
KAI1 082323Z 00000KT M01/M02 A3025 RMK A01 T10141017  RH  098%=      5-min Rain = 0
KAI1 082324Z 00000KT M01/M02 A3025 RMK A01 T10141017  RH  098%=      5-min Rain = 0
KAI1 082325Z 00000KT M01/M02 A3025 RMK A01 T10141017  RH  098%=      5-min Rain = 0
KAI1 082326Z 00000KT M01/M02 A3025 RMK A01 T10141017  RH  098%=      5-min Rain = 0
KAI1 082327Z 00000KT M02/M02 A3025 RMK A01 T10151018  RH  098%=      5-min Rain = 0
KAI1 082328Z 00000KT M02/M02 A3025 RMK A01 T10151018  RH  098%=      5-min Rain = 0
KAI1 082329Z 00000KT M02/M02 A3025 RMK A01 T10151018  RH  098%=      5-min Rain = 0
KAI1 082330Z 00000KT M02/M02 A3025 RMK A01 T10161019  RH  098%=      5-min Rain = 0
KAI1 082331Z 00000KT M02/M02 A3024 RMK A01 T10161019  RH  098%=      5-min Rain = 0
KAI1 082332Z 00000KT M02/M02 A3024 RMK A01 T10161019  RH  098%=      5-min Rain = 0
KAI1 082333Z 00000KT M02/M02 A3024 RMK A01 T10161019  RH  098%=      5-min Rain = 0
KAI1 082334Z 00000KT M02/M02 A3024 RMK A01 T10161019  RH  098%=      5-min Rain = 0
KAI1 082335Z 00000KT M02/M02 A3025 RMK A01 T10161019  RH  098%=      5-min Rain = 0
KAI1 082336Z 00000KT M02/M02 A3025 RMK A01 T10161019  RH  098%=      5-min Rain = 0
KAI1 082337Z 00000KT M02/M02 A3025 RMK A01 T10171020  RH  098%=      5-min Rain = 0
KAI1 082338Z 03000KT M02/M02 A3025 RMK A01 T10171020  RH  098%=      5-min Rain = 0
KAI1 082339Z 03001KT M02/M02 A3025 RMK A01 T10171020  RH  098%=      5-min Rain = 0
KAI1 082340Z 03001KT M02/M02 A3025 RMK A01 T10181021  RH  098%=      5-min Rain = 0
KAI1 082341Z 03001KT M02/M02 A3025 RMK A01 T10181021  RH  098%=      5-min Rain = 0
KAI1 082342Z 03001KT M02/M02 A3025 RMK A01 T10181021  RH  098%=      5-min Rain = 0
KAI1 082343Z 03001KT M02/M02 A3025 RMK A01 T10191022  RH  098%=      5-min Rain = 0
KAI1 082344Z 03001KT M02/M02 A3025 RMK A01 T10191022  RH  098%=      5-min Rain = 0
KAI1 082345Z 03001KT M02/M02 A3025 RMK A01 T10191022  RH  098%=      5-min Rain = 0
KAI1 082346Z 03001KT M02/M02 A3025 RMK A01 T10201023  RH  098%=      5-min Rain = 0
KAI1 082347Z 03001KT M02/M02 A3025 RMK A01 T10201023  RH  098%=      5-min Rain = 0
KAI1 082348Z 03001KT M02/M02 A3025 RMK A01 T10211023  RH  098%=      5-min Rain = 0
KAI1 082349Z 03001KT M02/M02 A3025 RMK A01 T10211024  RH  098%=      5-min Rain = 0
KAI1 082350Z 03001KT M02/M02 A3025 RMK A01 T10211024  RH  098%=      5-min Rain = 0
KAI1 082351Z 03001KT M02/M02 A3024 RMK A01 T10221024  RH  098%=      5-min Rain = 0
KAI1 082352Z 03001KT M02/M02 A3024 RMK A01 T10211024  RH  098%=      5-min Rain = 0
KAI1 082353Z 04001KT M02/M03 A3025 RMK A01 T10221025  RH  098%=      5-min Rain = 0
KAI1 082354Z 04002KT M02/M03 A3025 RMK A01 T10221025  RH  098%=      5-min Rain = 0
KAI1 082355Z 05002KT M02/M03 A3025 RMK A01 T10231026  RH  098%=      5-min Rain = 0
KAI1 082356Z 05002KT M02/M03 A3024 RMK A01 T10231026  RH  098%=      5-min Rain = 0
KAI1 082357Z 05002KT M02/M03 A3024 RMK A01 T10241027  RH  098%=      5-min Rain = 0
KAI1 082358Z 05002KT M02/M03 A3024 RMK A01 T10241027  RH  098%=      5-min Rain = 0
KAI1 082359Z 04002KT M03/M03 A3024 RMK A01 T10251028  RH  098%=      5-min Rain = 0
KAI1 090000Z 04002KT M03/M03 A3024 RMK A01 T10251028  RH  098%=      5-min Rain = 0
KAI1 090001Z 04002KT M03/M03 A3025 RMK A01 T10251028  RH  098%=      5-min Rain = 0
KAI1 090002Z 04002KT M03/M03 A3025 RMK A01 T10251028  RH  098%=      5-min Rain = 0
KAI1 090003Z 04002KT M03/M03 A3025 RMK A01 T10251028  RH  098%=      5-min Rain = 0
KAI1 090004Z 04002KT M03/M03 A3025 RMK A01 T10251028  RH  098%=      5-min Rain = 0
KAI1 090005Z 04002KT M03/M03 A3025 RMK A01 T10251028  RH  098%=      5-min Rain = 0
KAI1 090006Z 04002KT M03/M03 A3025 RMK A01 T10251028  RH  098%=      5-min Rain = 0
KAI1 090007Z 03002KT M03/M03 A3025 RMK A01 T10251028  RH  098%=      5-min Rain = 0
KAI1 090008Z 03002KT M03/M03 A3025 RMK A01 T10251028  RH  098%=      5-min Rain = 0
KAI1 090009Z 02002KT M03/M03 A3025 RMK A01 T10261028  RH  098%=      5-min Rain = 0
KAI1 090010Z 02002KT M03/M03 A3025 RMK A01 T10261028  RH  098%=      5-min Rain = 0
KAI1 090011Z 02002KT M03/M03 A3025 RMK A01 T10261029  RH  098%=      5-min Rain = 0
KAI1 090012Z 02002KT M03/M03 A3025 RMK A01 T10261029  RH  098%=      5-min Rain = 0
KAI1 090013Z 01002KT M03/M03 A3025 RMK A01 T10261029  RH  098%=      5-min Rain = 0
KAI1 090014Z 01001KT M03/M03 A3025 RMK A01 T10271029  RH  098%=      5-min Rain = 0
KAI1 090015Z 00002KT M03/M03 A3025 RMK A01 T10271030  RH  098%=      5-min Rain = 0
KAI1 090016Z 36001KT M03/M03 A3026 RMK A01 T10281031  RH  098%=      5-min Rain = 0
KAI1 090017Z 35001KT M03/M03 A3026 RMK A01 T10281031  RH  098%=      5-min Rain = 0
KAI1 090018Z 35001KT M03/M03 A3026 RMK A01 T10281031  RH  098%=      5-min Rain = 0
KAI1 090019Z 34001KT M03/M03 A3026 RMK A01 T10281031  RH  098%=      5-min Rain = 0
KAI1 090020Z 34001KT M03/M03 A3026 RMK A01 T10291031  RH  098%=      5-min Rain = 0
KAI1 090021Z 33001KT M03/M03 A3026 RMK A01 T10281031  RH  098%=      5-min Rain = 0
KAI1 090022Z 33001KT M03/M03 A3026 RMK A01 T10281031  RH  098%=      5-min Rain = 0
KAI1 090023Z 33001KT M03/M03 A3026 RMK A01 T10281031  RH  098%=      5-min Rain = 0
KAI1 090024Z 33001KT M03/M03 A3026 RMK A01 T10291031  RH  098%=      5-min Rain = 0
KAI1 090025Z 33001KT M03/M03 A3026 RMK A01 T10291032  RH  098%=      5-min Rain = 0
KAI1 090026Z 33000KT M03/M03 A3026 RMK A01 T10291032  RH  098%=      5-min Rain = 0
KAI1 090027Z 33000KT M03/M03 A3026 RMK A01 T10291032  RH  098%=      5-min Rain = 0
KAI1 090028Z 33000KT M03/M03 A3026 RMK A01 T10291032  RH  098%=      5-min Rain = 0
KAI1 090029Z 00000KT M03/M03 A3026 RMK A01 T10311034  RH  098%=      5-min Rain = 0
KAI1 090030Z 00000KT M03/M04 A3026 RMK A01 T10321036  RH  098%=      5-min Rain = 0
KAI1 090031Z 00000KT M03/M04 A3026 RMK A01 T10341037  RH  098%=      5-min Rain = 0
KAI1 090032Z 00000KT M04/M04 A3026 RMK A01 T10351038  RH  098%=      5-min Rain = 0
KAI1 090033Z 00000KT M04/M04 A3026 RMK A01 T10351039  RH  097%=      5-min Rain = 0
KAI1 090034Z 00000KT M04/M04 A3026 RMK A01 T10361040  RH  097%=      5-min Rain = 0
KAI1 090035Z 00000KT M04/M04 A3026 RMK A01 T10361040  RH  097%=      5-min Rain = 0
KAI1 090036Z 00000KT M04/M04 A3026 RMK A01 T10361040  RH  097%=      5-min Rain = 0
KAI1 090037Z 00000KT M04/M04 A3026 RMK A01 T10371040  RH  097%=      5-min Rain = 0
KAI1 090038Z 00000KT M04/M04 A3026 RMK A01 T10371041  RH  097%=      5-min Rain = 0
KAI1 090039Z 00000KT M04/M04 A3026 RMK A01 T10381042  RH  097%=      5-min Rain = 0
KAI1 090040Z 00000KT M04/M04 A3026 RMK A01 T10391042  RH  097%=      5-min Rain = 0
KAI1 090041Z 00000KT M04/M04 A3026 RMK A01 T10391043  RH  097%=      5-min Rain = 0
KAI1 090042Z 00000KT M04/M04 A3026 RMK A01 T10401043  RH  097%=      5-min Rain = 0
KAI1 090043Z 00000KT M04/M04 A3027 RMK A01 T10401044  RH  097%=      5-min Rain = 0
KAI1 090044Z 00000KT M04/M04 A3027 RMK A01 T10401044  RH  097%=      5-min Rain = 0
KAI1 090045Z 00000KT M04/M04 A3027 RMK A01 T10401043  RH  097%=      5-min Rain = 0
KAI1 090046Z 00000KT M04/M04 A3027 RMK A01 T10401044  RH  097%=      5-min Rain = 0
KAI1 090047Z 04001KT M04/M04 A3027 RMK A01 T10401044  RH  097%=      5-min Rain = 0
KAI1 090048Z 04001KT M04/M04 A3027 RMK A01 T10401044  RH  097%=      5-min Rain = 0
KAI1 090049Z 04001KT M04/M04 A3027 RMK A01 T10401043  RH  097%=      5-min Rain = 0
KAI1 090050Z 04001KT M04/M04 A3027 RMK A01 T10381042  RH  098%=      5-min Rain = 0
KAI1 090051Z 04000KT M04/M04 A3027 RMK A01 T10381041  RH  098%=      5-min Rain = 0
KAI1 090052Z 00000KT M04/M04 A3027 RMK A01 T10381041  RH  098%=      5-min Rain = 0
KAI1 090053Z 00000KT M04/M04 A3027 RMK A01 T10391042  RH  098%=      5-min Rain = 0
KAI1 090054Z 00000KT M04/M04 A3027 RMK A01 T10401043  RH  098%=      5-min Rain = 0
KAI1 090055Z 00000KT M04/M04 A3027 RMK A01 T10411044  RH  097%=      5-min Rain = 0
KAI1 090056Z 00000KT M04/M05 A3027 RMK A01 T10421045  RH  097%=      5-min Rain = 0
KAI1 090057Z 00000KT M04/M05 A3027 RMK A01 T10421046  RH  097%=      5-min Rain = 0
KAI1 090058Z 00000KT M04/M05 A3027 RMK A01 T10421046  RH  097%=      5-min Rain = 0
KAI1 090059Z 00000KT M04/M05 A3027 RMK A01 T10431047  RH  097%=      5-min Rain = 0
KAI1 090100Z 00000KT M04/M05 A3027 RMK A01 T10431047  RH  097%=      5-min Rain = 0
KAI1 090101Z 00000KT M04/M05 A3027 RMK A01 T10431047  RH  097%=      5-min Rain = 0
KAI1 090102Z 00000KT M04/M05 A3027 RMK A01 T10421046  RH  097%=      5-min Rain = 0
KAI1 090103Z 00000KT M04/M05 A3027 RMK A01 T10441048  RH  097%=      5-min Rain = 0
KAI1 090104Z 05000KT M05/M05 A3027 RMK A01 T10461050  RH  097%=      5-min Rain = 0
KAI1 090105Z 05001KT M05/M05 A3027 RMK A01 T10461051  RH  097%=      5-min Rain = 0
KAI1 090106Z 06001KT M05/M05 A3027 RMK A01 T10461050  RH  097%=      5-min Rain = 0
KAI1 090107Z 06001KT M05/M05 A3027 RMK A01 T10461051  RH  097%=      5-min Rain = 0
KAI1 090108Z 07001KT M05/M05 A3027 RMK A01 T10461050  RH  097%=      5-min Rain = 0
KAI1 090109Z 07002KT M04/M05 A3027 RMK A01 T10441048  RH  097%=      5-min Rain = 0
KAI1 090110Z 07002KT M04/M05 A3027 RMK A01 T10441047  RH  097%=      5-min Rain = 0
KAI1 090111Z 07002KT M04/M05 A3027 RMK A01 T10431047  RH  097%=      5-min Rain = 0
KAI1 090112Z 07002KT M04/M05 A3027 RMK A01 T10431047  RH  097%=      5-min Rain = 0
KAI1 090113Z 07001KT M04/M05 A3027 RMK A01 T10421046  RH  097%=      5-min Rain = 0
KAI1 090114Z 07000KT M04/M04 A3027 RMK A01 T10411044  RH  098%=      5-min Rain = 0
KAI1 090115Z 00000KT M04/M04 A3027 RMK A01 T10401043  RH  098%=      5-min Rain = 0
KAI1 090116Z 00000KT M04/M04 A3027 RMK A01 T10391042  RH  098%=      5-min Rain = 0
KAI1 090117Z 00000KT M04/M04 A3027 RMK A01 T10391042  RH  098%=      5-min Rain = 0
KAI1 090118Z 00000KT M04/M04 A3027 RMK A01 T10391042  RH  098%=      5-min Rain = 0
KAI1 090119Z 00000KT M04/M04 A3027 RMK A01 T10391042  RH  098%=      5-min Rain = 0
KAI1 090120Z 00000KT M04/M04 A3027 RMK A01 T10391042  RH  098%=      5-min Rain = 0
KAI1 090121Z 00000KT M04/M04 A3027 RMK A01 T10391042  RH  098%=      5-min Rain = 0
KAI1 090122Z 00000KT M04/M04 A3027 RMK A01 T10411044  RH  098%=      5-min Rain = 0
KAI1 090123Z 00000KT M04/M05 A3027 RMK A01 T10431047  RH  097%=      5-min Rain = 0
KAI1 090124Z 00000KT M05/M05 A3027 RMK A01 T10461051  RH  097%=      5-min Rain = 0
KAI1 090125Z 00000KT M05/M06 A3027 RMK A01 T10501055  RH  096%=      5-min Rain = 0
KAI1 090126Z 00000KT M05/M06 A3027 RMK A01 T10521058  RH  096%=      5-min Rain = 0
KAI1 090127Z 00000KT M06/M06 A3027 RMK A01 T10551061  RH  095%=      5-min Rain = 0
KAI1 090128Z 00000KT M06/M06 A3027 RMK A01 T10561063  RH  095%=      5-min Rain = 0
KAI1 090129Z 00000KT M06/M06 A3027 RMK A01 T10581064  RH  095%=      5-min Rain = 0
KAI1 090130Z 00000KT M06/M07 A3027 RMK A01 T10581065  RH  095%=      5-min Rain = 0
KAI1 090131Z 00000KT M06/M07 A3027 RMK A01 T10591065  RH  095%=      5-min Rain = 0
KAI1 090132Z 00000KT M06/M07 A3027 RMK A01 T10591065  RH  095%=      5-min Rain = 0
KAI1 090133Z 00000KT M06/M07 A3027 RMK A01 T10591065  RH  095%=      5-min Rain = 0
KAI1 090134Z 00000KT M06/M07 A3027 RMK A01 T10591066  RH  095%=      5-min Rain = 0
KAI1 090135Z 00000KT M06/M07 A3027 RMK A01 T10591065  RH  096%=      5-min Rain = 0
KAI1 090136Z 00000KT M06/M06 A3027 RMK A01 T10581064  RH  096%=      5-min Rain = 0
KAI1 090137Z 00000KT M06/M06 A3027 RMK A01 T10581063  RH  096%=      5-min Rain = 0
KAI1 090138Z 00000KT M06/M06 A3027 RMK A01 T10581063  RH  096%=      5-min Rain = 0
KAI1 090139Z 25000KT M06/M06 A3027 RMK A01 T10581063  RH  096%=      5-min Rain = 0
KAI1 090140Z 25001KT M06/M06 A3027 RMK A01 T10581064  RH  096%=      5-min Rain = 0
KAI1 090141Z 25001KT M06/M06 A3027 RMK A01 T10591064  RH  096%=      5-min Rain = 0
KAI1 090142Z 25001KT M06/M06 A3027 RMK A01 T10591064  RH  096%=      5-min Rain = 0
KAI1 090143Z 25001KT M06/M07 A3027 RMK A01 T10591065  RH  096%=      5-min Rain = 0
KAI1 090144Z 25001KT M06/M07 A3028 RMK A01 T10591065  RH  096%=      5-min Rain = 0
KAI1 090145Z 25001KT M06/M07 A3028 RMK A01 T10591065  RH  096%=      5-min Rain = 0
KAI1 090146Z 25001KT M06/M07 A3028 RMK A01 T10601065  RH  096%=      5-min Rain = 0
KAI1 090147Z 25000KT M06/M07 A3028 RMK A01 T10601066  RH  096%=      5-min Rain = 0
KAI1 090148Z 25000KT M06/M07 A3028 RMK A01 T10611067  RH  095%=      5-min Rain = 0
KAI1 090149Z 25001KT M06/M07 A3028 RMK A01 T10611068  RH  095%=      5-min Rain = 0
KAI1 090150Z 25001KT M06/M07 A3028 RMK A01 T10621069  RH  095%=      5-min Rain = 0
KAI1 090151Z 26001KT M06/M07 A3028 RMK A01 T10631069  RH  095%=      5-min Rain = 0
KAI1 090152Z 26002KT M06/M07 A3028 RMK A01 T10631070  RH  095%=      5-min Rain = 0
KAI1 090153Z 26002KT M06/M07 A3028 RMK A01 T10641070  RH  095%=      5-min Rain = 0
KAI1 090154Z 26002KT M07/M07 A3028 RMK A01 T10651071  RH  095%=      5-min Rain = 0
KAI1 090155Z 26002KT M07/M07 A3028 RMK A01 T10651072  RH  095%=      5-min Rain = 0
KAI1 090156Z 26002KT M07/M07 A3027 RMK A01 T10651072  RH  095%=      5-min Rain = 0
KAI1 090157Z 26002KT M07/M07 A3027 RMK A01 T10651072  RH  095%=      5-min Rain = 0
KAI1 090158Z 26002KT M07/M07 A3027 RMK A01 T10661073  RH  095%=      5-min Rain = 0
KAI1 090159Z 26002KT M07/M07 A3027 RMK A01 T10651072  RH  095%=      5-min Rain = 0
KAI1 090200Z 26002KT M07/M07 A3028 RMK A01 T10651072  RH  095%=      5-min Rain = 0
KAI1 090201Z 26002KT M07/M07 A3028 RMK A01 T10661072  RH  095%=      5-min Rain = 0
KAI1 090202Z 26002KT M07/M07 A3028 RMK A01 T10651072  RH  095%=      5-min Rain = 0
KAI1 090203Z 26001KT M07/M07 A3028 RMK A01 T10661073  RH  095%=      5-min Rain = 0
KAI1 090204Z 26001KT M07/M07 A3028 RMK A01 T10661073  RH  095%=      5-min Rain = 0
KAI1 090205Z 26001KT M07/M07 A3028 RMK A01 T10661073  RH  095%=      5-min Rain = 0
KAI1 090206Z 00000KT M07/M07 A3028 RMK A01 T10671074  RH  095%=      5-min Rain = 0
KAI1 090207Z 00000KT M07/M07 A3028 RMK A01 T10671074  RH  095%=      5-min Rain = 0
KAI1 090208Z 00000KT M07/M07 A3028 RMK A01 T10671074  RH  095%=      5-min Rain = 0
KAI1 090209Z 00000KT M07/M07 A3028 RMK A01 T10671074  RH  095%=      5-min Rain = 0
KAI1 090210Z 00000KT M07/M07 A3028 RMK A01 T10671074  RH  095%=      5-min Rain = 0
KAI1 090211Z 00000KT M07/M07 A3028 RMK A01 T10671074  RH  095%=      5-min Rain = 0
KAI1 090212Z 00000KT M07/M07 A3028 RMK A01 T10671074  RH  095%=      5-min Rain = 0
KAI1 090213Z 00000KT M07/M07 A3028 RMK A01 T10671074  RH  095%=      5-min Rain = 0
KAI1 090214Z 00000KT M07/M07 A3028 RMK A01 T10671074  RH  095%=      5-min Rain = 0
KAI1 090215Z 00000KT M07/M07 A3028 RMK A01 T10671073  RH  095%=      5-min Rain = 0
KAI1 090216Z 00000KT M07/M07 A3028 RMK A01 T10671073  RH  095%=      5-min Rain = 0
KAI1 090217Z 00000KT M07/M07 A3028 RMK A01 T10661073  RH  095%=      5-min Rain = 0
KAI1 090218Z 00000KT M07/M07 A3028 RMK A01 T10661073  RH  095%=      5-min Rain = 0
KAI1 090219Z 00000KT M07/M07 A3028 RMK A01 T10661072  RH  096%=      5-min Rain = 0
KAI1 090220Z 00000KT M07/M07 A3028 RMK A01 T10661072  RH  095%=      5-min Rain = 0
KAI1 090221Z 00000KT M07/M07 A3028 RMK A01 T10661072  RH  096%=      5-min Rain = 0
KAI1 090222Z 00000KT M07/M07 A3028 RMK A01 T10661072  RH  096%=      5-min Rain = 0
KAI1 090223Z 00000KT M07/M07 A3028 RMK A01 T10671073  RH  095%=      5-min Rain = 0
KAI1 090224Z 00000KT M07/M08 A3028 RMK A01 T10681075  RH  095%=      5-min Rain = 0
KAI1 090225Z 00000KT M07/M07 A3028 RMK A01 T10671074  RH  095%=      5-min Rain = 0
KAI1 090226Z 00000KT M07/M07 A3028 RMK A01 T10661072  RH  095%=      5-min Rain = 0
KAI1 090227Z 00000KT M07/M07 A3028 RMK A01 T10651071  RH  096%=      5-min Rain = 0
KAI1 090228Z 00000KT M07/M07 A3028 RMK A01 T10651070  RH  096%=      5-min Rain = 0
KAI1 090229Z 00000KT M07/M07 A3028 RMK A01 T10651071  RH  096%=      5-min Rain = 0
KAI1 090230Z 00000KT M07/M07 A3028 RMK A01 T10661073  RH  095%=      5-min Rain = 0
KAI1 090231Z 00000KT M07/M07 A3028 RMK A01 T10671073  RH  095%=      5-min Rain = 0
KAI1 090232Z 00000KT M07/M07 A3028 RMK A01 T10661072  RH  095%=      5-min Rain = 0
KAI1 090233Z 00000KT M07/M07 A3028 RMK A01 T10661072  RH  095%=      5-min Rain = 0
KAI1 090234Z 00000KT M07/M07 A3028 RMK A01 T10651071  RH  096%=      5-min Rain = 0
KAI1 090235Z 00000KT M06/M07 A3028 RMK A01 T10641070  RH  096%=      5-min Rain = 0
KAI1 090236Z 00000KT M07/M07 A3028 RMK A01 T10651071  RH  096%=      5-min Rain = 0
KAI1 090237Z 00000KT M07/M07 A3028 RMK A01 T10651071  RH  096%=      5-min Rain = 0
KAI1 090238Z 00000KT M06/M07 A3028 RMK A01 T10641069  RH  096%=      5-min Rain = 0
KAI1 090239Z 00000KT M06/M07 A3028 RMK A01 T10621067  RH  096%=      5-min Rain = 0
KAI1 090240Z 00000KT M06/M07 A3028 RMK A01 T10621067  RH  096%=      5-min Rain = 0
KAI1 090241Z 00000KT M06/M07 A3028 RMK A01 T10611067  RH  096%=      5-min Rain = 0
KAI1 090242Z 00000KT M06/M07 A3028 RMK A01 T10631069  RH  096%=      5-min Rain = 0
KAI1 090243Z 00000KT M07/M07 A3028 RMK A01 T10651072  RH  095%=      5-min Rain = 0
KAI1 090244Z 00000KT M07/M07 A3028 RMK A01 T10651071  RH  095%=      5-min Rain = 0
KAI1 090245Z 00000KT M06/M07 A3028 RMK A01 T10611067  RH  096%=      5-min Rain = 0
KAI1 090246Z 00000KT M06/M06 A3028 RMK A01 T10581063  RH  097%=      5-min Rain = 0
KAI1 090247Z 00000KT M06/M06 A3028 RMK A01 T10551059  RH  097%=      5-min Rain = 0
KAI1 090248Z 00000KT M05/M06 A3028 RMK A01 T10541058  RH  097%=      5-min Rain = 0
KAI1 090249Z 00000KT M06/M06 A3028 RMK A01 T10561060  RH  097%=      5-min Rain = 0
KAI1 090250Z 00000KT M06/M07 A3028 RMK A01 T10611066  RH  096%=      5-min Rain = 0
KAI1 090251Z 00000KT M06/M07 A3028 RMK A01 T10641071  RH  095%=      5-min Rain = 0
KAI1 090252Z 00000KT M07/M07 A3028 RMK A01 T10661073  RH  095%=      5-min Rain = 0
KAI1 090253Z 00000KT M07/M07 A3028 RMK A01 T10661074  RH  095%=      5-min Rain = 0
KAI1 090254Z 00000KT M07/M08 A3028 RMK A01 T10681076  RH  094%=      5-min Rain = 0
KAI1 090255Z 00000KT M07/M08 A3028 RMK A01 T10701078  RH  094%=      5-min Rain = 0
KAI1 090256Z 00000KT M07/M08 A3028 RMK A01 T10711080  RH  094%=      5-min Rain = 0
KAI1 090257Z 00000KT M07/M08 A3028 RMK A01 T10721081  RH  094%=      5-min Rain = 0
KAI1 090258Z 00000KT M07/M08 A3028 RMK A01 T10731082  RH  094%=      5-min Rain = 0
KAI1 090259Z 29000KT M07/M08 A3028 RMK A01 T10741083  RH  094%=      5-min Rain = 0
KAI1 090300Z 29001KT M08/M08 A3028 RMK A01 T10751083  RH  094%=      5-min Rain = 0
KAI1 090301Z 29001KT M08/M08 A3028 RMK A01 T10751083  RH  094%=      5-min Rain = 0
KAI1 090302Z 29001KT M08/M08 A3028 RMK A01 T10751083  RH  094%=      5-min Rain = 0
KAI1 090303Z 29001KT M07/M08 A3028 RMK A01 T10741082  RH  094%=      5-min Rain = 0
KAI1 090304Z 29001KT M07/M08 A3028 RMK A01 T10731081  RH  094%=      5-min Rain = 0
KAI1 090305Z 29001KT M07/M08 A3028 RMK A01 T10741081  RH  094%=      5-min Rain = 0
KAI1 090306Z 29002KT M08/M08 A3028 RMK A01 T10751083  RH  094%=      5-min Rain = 0
KAI1 090307Z 29002KT M08/M09 A3028 RMK A01 T10771085  RH  094%=      5-min Rain = 0
KAI1 090308Z 27002KT M08/M09 A3028 RMK A01 T10791088  RH  093%=      5-min Rain = 0
KAI1 090309Z 27002KT M08/M09 A3028 RMK A01 T10811091  RH  093%=      5-min Rain = 0
KAI1 090310Z 27003KT M08/M09 A3028 RMK A01 T10831093  RH  092%=      5-min Rain = 0
KAI1 090311Z 27003KT M09/M10 A3028 RMK A01 T10851095  RH  092%=      5-min Rain = 0
KAI1 090312Z 26004KT M09/M10 A3028 RMK A01 T10871097  RH  092%=      5-min Rain = 0
KAI1 090313Z 25004KT M09/M10 A3028 RMK A01 T10871098  RH  092%=      5-min Rain = 0
KAI1 090314Z 25004KT M09/M10 A3028 RMK A01 T10881099  RH  092%=      5-min Rain = 0
KAI1 090315Z 25004KT M09/M10 A3029 RMK A01 T10891100  RH  092%=      5-min Rain = 0
KAI1 090316Z 26004KT M09/M10 A3029 RMK A01 T10901101  RH  092%=      5-min Rain = 0
KAI1 090317Z 26004KT M09/M10 A3029 RMK A01 T10911101  RH  092%=      5-min Rain = 0
KAI1 090318Z 26004KT M09/M10 A3029 RMK A01 T10911101  RH  092%=      5-min Rain = 0
KAI1 090319Z 26004KT M09/M10 A3029 RMK A01 T10911101  RH  092%=      5-min Rain = 0
KAI1 090320Z 26004KT M09/M10 A3029 RMK A01 T10921101  RH  093%=      5-min Rain = 0
KAI1 090321Z 26004KT M09/M10 A3029 RMK A01 T10911101  RH  093%=      5-min Rain = 0
KAI1 090322Z 26004KT M09/M10 A3029 RMK A01 T10911100  RH  093%=      5-min Rain = 0
KAI1 090323Z 27005KT M09/M10 A3029 RMK A01 T10901099  RH  093%=      5-min Rain = 0
KAI1 090324Z 26005KT M09/M10 A3029 RMK A01 T10881096  RH  094%=      5-min Rain = 0
KAI1 090325Z 27005KT M09/M09 A3029 RMK A01 T10861094  RH  094%=      5-min Rain = 0
KAI1 090326Z 26006KT M09/M09 A3029 RMK A01 T10851092  RH  094%=      5-min Rain = 0
KAI1 090327Z 26006KT M08/M09 A3029 RMK A01 T10831091  RH  095%=      5-min Rain = 0
KAI1 090328Z 26006KT M08/M09 A3029 RMK A01 T10831090  RH  095%=      5-min Rain = 0
KAI1 090329Z 26006KT M08/M09 A3029 RMK A01 T10831090  RH  094%=      5-min Rain = 0
KAI1 090330Z 26006KT M08/M09 A3029 RMK A01 T10831090  RH  094%=      5-min Rain = 0
KAI1 090331Z 26006KT M08/M09 A3029 RMK A01 T10831091  RH  094%=      5-min Rain = 0
KAI1 090332Z 26006KT M08/M09 A3029 RMK A01 T10841093  RH  094%=      5-min Rain = 0
KAI1 090333Z 26006KT M09/M09 A3029 RMK A01 T10851093  RH  094%=      5-min Rain = 0
KAI1 090334Z 26006KT M09/M09 A3029 RMK A01 T10851094  RH  093%=      5-min Rain = 0
KAI1 090335Z 26006KT M09/M09 A3029 RMK A01 T10861094  RH  093%=      5-min Rain = 0
KAI1 090336Z 26006KT M09/M09 A3029 RMK A01 T10861094  RH  093%=      5-min Rain = 0
KAI1 090337Z 27006KT M09/M10 A3029 RMK A01 T10861095  RH  093%=      5-min Rain = 0
KAI1 090338Z 26006KT M09/M10 A3029 RMK A01 T10861095  RH  093%=      5-min Rain = 0
KAI1 090339Z 26006KT M09/M09 A3029 RMK A01 T10861094  RH  093%=      5-min Rain = 0
KAI1 090340Z 27006KT M09/M10 A3029 RMK A01 T10861095  RH  093%=      5-min Rain = 0
KAI1 090341Z 27006KT M09/M10 A3029 RMK A01 T10871096  RH  093%=      5-min Rain = 0
KAI1 090342Z 27006KT M09/M10 A3029 RMK A01 T10871096  RH  093%=      5-min Rain = 0
KAI1 090343Z 27006KT M09/M10 A3029 RMK A01 T10881097  RH  093%=      5-min Rain = 0
KAI1 090344Z 26006KT M09/M10 A3029 RMK A01 T10881097  RH  093%=      5-min Rain = 0
KAI1 090345Z 26006KT M09/M10 A3029 RMK A01 T10881097  RH  093%=      5-min Rain = 0
KAI1 090346Z 27006KT M09/M10 A3029 RMK A01 T10871096  RH  093%=      5-min Rain = 0
KAI1 090347Z 26006KT M09/M09 A3029 RMK A01 T10861094  RH  094%=      5-min Rain = 0
KAI1 090348Z 27006KT M09/M09 A3029 RMK A01 T10851093  RH  094%=      5-min Rain = 0
KAI1 090349Z 27005KT M08/M09 A3029 RMK A01 T10841092  RH  094%=      5-min Rain = 0
KAI1 090350Z 28005KT M08/M09 A3029 RMK A01 T10841092  RH  094%=      5-min Rain = 0
KAI1 090351Z 28005KT M08/M09 A3029 RMK A01 T10841092  RH  094%=      5-min Rain = 0
KAI1 090352Z 28005KT M08/M09 A3029 RMK A01 T10831091  RH  094%=      5-min Rain = 0
KAI1 090353Z 28005KT M08/M09 A3029 RMK A01 T10831091  RH  094%=      5-min Rain = 0
KAI1 090354Z 28005KT M08/M09 A3029 RMK A01 T10831091  RH  094%=      5-min Rain = 0
KAI1 090355Z 27005KT M08/M09 A3029 RMK A01 T10821091  RH  094%=      5-min Rain = 0
KAI1 090356Z 28005KT M08/M09 A3029 RMK A01 T10821091  RH  094%=      5-min Rain = 0
KAI1 090357Z 28005KT M08/M09 A3029 RMK A01 T10821090  RH  094%=      5-min Rain = 0
KAI1 090358Z 28005KT M08/M09 A3029 RMK A01 T10811089  RH  094%=      5-min Rain = 0
KAI1 090359Z 28004KT M08/M09 A3029 RMK A01 T10821090  RH  094%=      5-min Rain = 0
KAI1 090400Z 28005KT M08/M09 A3029 RMK A01 T10811089  RH  094%=      5-min Rain = 0
KAI1 090401Z 27005KT M08/M09 A3029 RMK A01 T10811089  RH  094%=      5-min Rain = 0
KAI1 090402Z 27005KT M08/M09 A3029 RMK A01 T10811089  RH  094%=      5-min Rain = 0
KAI1 090403Z 28006KT M08/M09 A3029 RMK A01 T10801088  RH  094%=      5-min Rain = 0
KAI1 090404Z 28005KT M08/M09 A3029 RMK A01 T10801088  RH  094%=      5-min Rain = 0
KAI1 090405Z 28005KT M08/M09 A3029 RMK A01 T10801087  RH  094%=      5-min Rain = 0
KAI1 090406Z 28005KT M08/M09 A3029 RMK A01 T10801088  RH  094%=      5-min Rain = 0
KAI1 090407Z 28005KT M08/M09 A3029 RMK A01 T10801087  RH  094%=      5-min Rain = 0
KAI1 090408Z 28005KT M08/M09 A3029 RMK A01 T10801088  RH  094%=      5-min Rain = 0
KAI1 090409Z 27006KT M08/M09 A3029 RMK A01 T10801088  RH  094%=      5-min Rain = 0
KAI1 090410Z 27006KT M08/M09 A303 RMK A01 T10801088  RH  094%=      5-min Rain = 0
KAI1 090411Z 27006KT M08/M09 A303 RMK A01 T10801088  RH  094%=      5-min Rain = 0
KAI1 090412Z 27007KT M08/M09 A303 RMK A01 T10811089  RH  094%=      5-min Rain = 0
KAI1 090413Z 27007KT M08/M09 A303 RMK A01 T10811089  RH  094%=      5-min Rain = 0
KAI1 090414Z 27007KT M08/M09 A303 RMK A01 T10811090  RH  094%=      5-min Rain = 0
KAI1 090415Z 27007KT M08/M09 A303 RMK A01 T10821090  RH  094%=      5-min Rain = 0
KAI1 090416Z 27006KT M08/M09 A303 RMK A01 T10821090  RH  094%=      5-min Rain = 0
KAI1 090417Z 27006KT M08/M09 A303 RMK A01 T10821091  RH  094%=      5-min Rain = 0
KAI1 090418Z 27006KT M08/M09 A303 RMK A01 T10821091  RH  094%=      5-min Rain = 0
KAI1 090419Z 26006KT M08/M09 A303 RMK A01 T10831092  RH  093%=      5-min Rain = 0
KAI1 090420Z 26006KT M08/M09 A303 RMK A01 T10841093  RH  093%=      5-min Rain = 0
KAI1 090421Z 27006KT M09/M09 A303 RMK A01 T10851094  RH  093%=      5-min Rain = 0
KAI1 090422Z 27006KT M09/M10 A303 RMK A01 T10861095  RH  093%=      5-min Rain = 0
KAI1 090423Z 27006KT M09/M10 A303 RMK A01 T10871096  RH  093%=      5-min Rain = 0
KAI1 090424Z 27006KT M09/M10 A303 RMK A01 T10881097  RH  093%=      5-min Rain = 0
KAI1 090425Z 27006KT M09/M10 A303 RMK A01 T10881098  RH  093%=      5-min Rain = 0
KAI1 090426Z 27006KT M09/M10 A303 RMK A01 T10891098  RH  093%=      5-min Rain = 0
KAI1 090427Z 27006KT M09/M10 A303 RMK A01 T10891099  RH  093%=      5-min Rain = 0
KAI1 090428Z 27006KT M09/M10 A303 RMK A01 T10891099  RH  093%=      5-min Rain = 0
KAI1 090429Z 26005KT M09/M10 A303 RMK A01 T10891099  RH  093%=      5-min Rain = 0
KAI1 090430Z 26005KT M09/M10 A303 RMK A01 T10901100  RH  093%=      5-min Rain = 0
KAI1 090431Z 26005KT M09/M10 A303 RMK A01 T10901099  RH  093%=      5-min Rain = 0
KAI1 090432Z 27005KT M09/M10 A303 RMK A01 T10901099  RH  093%=      5-min Rain = 0
KAI1 090433Z 26005KT M09/M10 A303 RMK A01 T10901099  RH  093%=      5-min Rain = 0
KAI1 090434Z 27005KT M09/M10 A303 RMK A01 T10901099  RH  093%=      5-min Rain = 0
KAI1 090435Z 27005KT M09/M10 A303 RMK A01 T10901099  RH  093%=      5-min Rain = 0
KAI1 090436Z 27005KT M09/M10 A303 RMK A01 T10891099  RH  093%=      5-min Rain = 0
KAI1 090437Z 27005KT M09/M10 A303 RMK A01 T10891098  RH  093%=      5-min Rain = 0
KAI1 090438Z 27005KT M09/M10 A303 RMK A01 T10891098  RH  093%=      5-min Rain = 0
KAI1 090439Z 27005KT M09/M10 A3031 RMK A01 T10881097  RH  093%=      5-min Rain = 0
KAI1 090440Z 27006KT M09/M10 A3031 RMK A01 T10881097  RH  093%=      5-min Rain = 0
KAI1 090441Z 27006KT M09/M10 A3031 RMK A01 T10881097  RH  093%=      5-min Rain = 0
KAI1 090442Z 27006KT M09/M10 A3031 RMK A01 T10881097  RH  093%=      5-min Rain = 0
KAI1 090443Z 27006KT M09/M10 A3031 RMK A01 T10881096  RH  093%=      5-min Rain = 0
KAI1 090444Z 27006KT M09/M10 A3031 RMK A01 T10871096  RH  093%=      5-min Rain = 0
KAI1 090445Z 27005KT M09/M10 A3031 RMK A01 T10871096  RH  094%=      5-min Rain = 0
KAI1 090446Z 27005KT M09/M10 A3031 RMK A01 T10871096  RH  093%=      5-min Rain = 0
KAI1 090447Z 27005KT M09/M10 A3031 RMK A01 T10871096  RH  093%=      5-min Rain = 0
KAI1 090448Z 27005KT M09/M10 A3031 RMK A01 T10871096  RH  093%=      5-min Rain = 0
KAI1 090449Z 27005KT M09/M10 A3031 RMK A01 T10871096  RH  093%=      5-min Rain = 0
KAI1 090450Z 27005KT M09/M10 A3031 RMK A01 T10871097  RH  093%=      5-min Rain = 0
KAI1 090451Z 27005KT M09/M10 A3031 RMK A01 T10871096  RH  093%=      5-min Rain = 0
KAI1 090452Z 27005KT M09/M10 A3031 RMK A01 T10881097  RH  093%=      5-min Rain = 0
KAI1 090453Z 27005KT M09/M10 A3031 RMK A01 T10871096  RH  093%=      5-min Rain = 0
KAI1 090454Z 27005KT M09/M10 A3031 RMK A01 T10871096  RH  093%=      5-min Rain = 0
KAI1 090455Z 27005KT M09/M10 A3031 RMK A01 T10871096  RH  093%=      5-min Rain = 0
KAI1 090456Z 27004KT M09/M10 A3031 RMK A01 T10861095  RH  094%=      5-min Rain = 0
KAI1 090457Z 27004KT M09/M09 A3031 RMK A01 T10861094  RH  094%=      5-min Rain = 0
KAI1 090458Z 27005KT M09/M09 A3031 RMK A01 T10851094  RH  094%=      5-min Rain = 0
KAI1 090459Z 28005KT M09/M09 A3031 RMK A01 T10851093  RH  094%=      5-min Rain = 0
KAI1 090500Z 28005KT M08/M09 A3031 RMK A01 T10841092  RH  094%=      5-min Rain = 0
KAI1 090501Z 28006KT M08/M09 A3031 RMK A01 T10841092  RH  094%=      5-min Rain = 0
KAI1 090502Z 28006KT M08/M09 A3031 RMK A01 T10831091  RH  094%=      5-min Rain = 0
KAI1 090503Z 28005KT M08/M09 A3031 RMK A01 T10831091  RH  094%=      5-min Rain = 0
KAI1 090504Z 28005KT M08/M09 A3031 RMK A01 T10821090  RH  094%=      5-min Rain = 0
KAI1 090505Z 28005KT M08/M09 A3031 RMK A01 T10821090  RH  094%=      5-min Rain = 0
KAI1 090506Z 28004KT M08/M09 A303 RMK A01 T10811089  RH  094%=      5-min Rain = 0
KAI1 090507Z 28004KT M08/M09 A303 RMK A01 T10811089  RH  094%=      5-min Rain = 0
KAI1 090508Z 28004KT M08/M09 A303 RMK A01 T10811089  RH  094%=      5-min Rain = 0
KAI1 090509Z 29004KT M08/M09 A303 RMK A01 T10811089  RH  094%=      5-min Rain = 0
KAI1 090510Z 29004KT M08/M09 A303 RMK A01 T10811089  RH  094%=      5-min Rain = 0
KAI1 090511Z 29004KT M08/M09 A303 RMK A01 T10821090  RH  094%=      5-min Rain = 0
KAI1 090512Z 29003KT M08/M09 A303 RMK A01 T10821091  RH  094%=      5-min Rain = 0
KAI1 090513Z 29003KT M08/M09 A303 RMK A01 T10831091  RH  093%=      5-min Rain = 0
KAI1 090514Z 29003KT M08/M09 A303 RMK A01 T10841093  RH  093%=      5-min Rain = 0
KAI1 090515Z 29003KT M09/M09 A303 RMK A01 T10851094  RH  093%=      5-min Rain = 0
KAI1 090516Z 29004KT M09/M09 A3031 RMK A01 T10851094  RH  093%=      5-min Rain = 0
KAI1 090517Z 29004KT M09/M10 A3031 RMK A01 T10851095  RH  093%=      5-min Rain = 0
KAI1 090518Z 29004KT M09/M10 A3031 RMK A01 T10861095  RH  093%=      5-min Rain = 0
KAI1 090519Z 29004KT M09/M10 A3031 RMK A01 T10861095  RH  093%=      5-min Rain = 0
KAI1 090520Z 29004KT M09/M10 A3031 RMK A01 T10861095  RH  093%=      5-min Rain = 0
KAI1 090521Z 29004KT M09/M10 A3031 RMK A01 T10861095  RH  093%=      5-min Rain = 0
KAI1 090522Z 29004KT M09/M10 A3031 RMK A01 T10861095  RH  093%=      5-min Rain = 0
KAI1 090523Z 29004KT M09/M10 A3031 RMK A01 T10861095  RH  093%=      5-min Rain = 0
KAI1 090524Z 28006KT M09/M10 A3031 RMK A01 T10861095  RH  093%=      5-min Rain = 0
KAI1 090525Z 28006KT M09/M10 A3031 RMK A01 T10861095  RH  093%=      5-min Rain = 0
KAI1 090526Z 27006KT M09/M10 A3031 RMK A01 T10861095  RH  093%=      5-min Rain = 0
KAI1 090527Z 27006KT M09/M09 A3031 RMK A01 T10851094  RH  094%=      5-min Rain = 0
KAI1 090528Z 27006KT M09/M09 A3031 RMK A01 T10851094  RH  094%=      5-min Rain = 0
KAI1 090529Z 28006KT M09/M09 A3031 RMK A01 T10851094  RH  093%=      5-min Rain = 0
KAI1 090530Z 27006KT M09/M10 A3031 RMK A01 T10861095  RH  093%=      5-min Rain = 0
KAI1 090531Z 27006KT M09/M09 A3031 RMK A01 T10851094  RH  093%=      5-min Rain = 0
KAI1 090532Z 27006KT M09/M09 A3031 RMK A01 T10851093  RH  094%=      5-min Rain = 0
KAI1 090533Z 27006KT M09/M09 A3031 RMK A01 T10851093  RH  094%=      5-min Rain = 0
KAI1 090534Z 27007KT M08/M09 A3031 RMK A01 T10841093  RH  094%=      5-min Rain = 0
KAI1 090535Z 27007KT M09/M09 A3031 RMK A01 T10851093  RH  094%=      5-min Rain = 0
KAI1 090536Z 27007KT M09/M09 A3031 RMK A01 T10851094  RH  093%=      5-min Rain = 0
KAI1 090537Z 27007KT M09/M09 A3031 RMK A01 T10851093  RH  093%=      5-min Rain = 0
KAI1 090538Z 27006KT M09/M09 A3031 RMK A01 T10851093  RH  093%=      5-min Rain = 0
KAI1 090539Z 27006KT M09/M09 A3031 RMK A01 T10851094  RH  094%=      5-min Rain = 0
KAI1 090540Z 27006KT M08/M09 A3031 RMK A01 T10841093  RH  094%=      5-min Rain = 0
KAI1 090541Z 28005KT M08/M09 A3031 RMK A01 T10841093  RH  094%=      5-min Rain = 0
KAI1 090542Z 28005KT M08/M09 A3031 RMK A01 T10841092  RH  094%=      5-min Rain = 0
KAI1 090543Z 28004KT M08/M09 A3031 RMK A01 T10831092  RH  094%=      5-min Rain = 0
KAI1 090544Z 28005KT M08/M09 A3031 RMK A01 T10821091  RH  094%=      5-min Rain = 0
KAI1 090545Z 28005KT M08/M09 A3031 RMK A01 T10821090  RH  094%=      5-min Rain = 0
KAI1 090546Z 28005KT M08/M09 A3031 RMK A01 T10811089  RH  094%=      5-min Rain = 0
KAI1 090547Z 28005KT M08/M09 A3031 RMK A01 T10801088  RH  094%=      5-min Rain = 0
KAI1 090548Z 28005KT M08/M09 A3031 RMK A01 T10801088  RH  094%=      5-min Rain = 0
KAI1 090549Z 28006KT M08/M09 A3031 RMK A01 T10791086  RH  094%=      5-min Rain = 0
KAI1 090550Z 28006KT M08/M09 A3031 RMK A01 T10781086  RH  094%=      5-min Rain = 0
KAI1 090551Z 28005KT M08/M09 A3031 RMK A01 T10781085  RH  094%=      5-min Rain = 0
KAI1 090552Z 28006KT M08/M08 A3031 RMK A01 T10771084  RH  095%=      5-min Rain = 0
KAI1 090553Z 28006KT M08/M08 A3031 RMK A01 T10771084  RH  095%=      5-min Rain = 0
KAI1 090554Z 28006KT M08/M08 A3031 RMK A01 T10761083  RH  095%=      5-min Rain = 0
KAI1 090555Z 28006KT M08/M08 A3031 RMK A01 T10761083  RH  095%=      5-min Rain = 0
KAI1 090556Z 28006KT M08/M08 A3031 RMK A01 T10761083  RH  094%=      5-min Rain = 0
KAI1 090557Z 28006KT M08/M08 A3031 RMK A01 T10751083  RH  094%=      5-min Rain = 0
KAI1 090558Z 28005KT M08/M08 A3031 RMK A01 T10751082  RH  095%=      5-min Rain = 0
KAI1 090559Z 28006KT M08/M08 A3031 RMK A01 T10751083  RH  094%=      5-min Rain = 0

Page generated in 0.1412 seconds.